Time,TemperatureF,DewpointF,PressureIn,WindDirection,WindDirectionDegrees,WindSpeedMPH,WindSpeedGustMPH,Humidity,HourlyPrecipIn,Conditions,Clouds,dailyrainin,SoftwareType,DateUTC
2013-07-18 00:00:00,74.1,62.5,29.26,SW,225,2.0,2.0,67,0.00,,,43.07,VWS V14.01,2013-07-18 04:00:00,
2013-07-18 00:01:00,74.1,62.9,29.26,SW,225,1.1,2.0,68,0.00,,,43.07,VWS V14.01,2013-07-18 04:01:00,
2013-07-18 00:02:00,74.1,62.9,29.26,SW,225,1.6,2.5,68,0.00,,,43.07,VWS V14.01,2013-07-18 04:02:00,
2013-07-18 00:03:00,74.1,62.9,29.26,South,180,2.0,2.0,68,0.00,,,43.07,VWS V14.01,2013-07-18 04:03:00,
2013-07-18 00:04:00,74.1,62.9,29.26,SSW,202,2.9,3.1,68,0.00,,,43.07,VWS V14.01,2013-07-18 04:04:00,
2013-07-18 00:05:00,74.5,63.7,29.26,SSW,202,2.7,3.4,69,0.00,,,0.00,VWS V14.01,2013-07-18 04:05:00,
2013-07-18 00:06:00,74.5,63.7,29.26,SSW,202,2.5,3.8,69,0.00,,,0.00,VWS V14.01,2013-07-18 04:06:00,
2013-07-18 00:07:00,74.5,63.7,29.26,South,180,1.1,4.3,69,0.00,,,0.00,VWS V14.01,2013-07-18 04:07:00,
2013-07-18 00:08:00,74.5,63.7,29.26,SW,225,3.8,6.3,69,0.00,,,0.00,VWS V14.01,2013-07-18 04:08:00,
2013-07-18 00:09:00,74.3,63.5,29.26,SSW,202,2.0,2.7,69,0.00,,,0.00,VWS V14.01,2013-07-18 04:09:00,
2013-07-18 00:10:00,74.5,63.7,29.26,West,270,3.1,3.1,69,0.00,,,0.00,VWS V14.01,2013-07-18 04:10:00,
2013-07-18 00:11:00,74.5,64.1,29.26,SSW,202,3.8,5.8,70,0.00,,,0.00,VWS V14.01,2013-07-18 04:11:00,
2013-07-18 00:12:00,74.5,64.1,29.26,WSW,248,2.9,3.8,70,0.00,,,0.00,VWS V14.01,2013-07-18 04:12:00,
2013-07-18 00:13:00,74.5,64.1,29.26,SW,225,2.5,4.7,70,0.00,,,0.00,VWS V14.01,2013-07-18 04:13:00,
2013-07-18 00:14:00,74.5,63.7,29.26,SW,225,2.7,2.7,69,0.00,,,0.00,VWS V14.01,2013-07-18 04:14:00,
2013-07-18 00:15:00,74.5,64.1,29.26,South,180,3.6,3.6,70,0.00,,,0.00,VWS V14.01,2013-07-18 04:15:00,
2013-07-18 00:16:00,74.5,64.1,29.26,SW,225,3.8,3.8,70,0.00,,,0.00,VWS V14.01,2013-07-18 04:16:00,
2013-07-18 00:17:00,74.5,64.1,29.26,South,180,2.7,4.3,70,0.00,,,0.00,VWS V14.01,2013-07-18 04:17:00,
2013-07-18 00:18:00,74.5,64.1,29.26,SW,225,3.8,4.7,70,0.00,,,0.00,VWS V14.01,2013-07-18 04:18:00,
2013-07-18 00:19:00,74.5,64.1,29.26,WSW,248,2.7,2.7,70,0.00,,,0.00,VWS V14.01,2013-07-18 04:19:00,
2013-07-18 00:20:00,74.5,64.1,29.26,SW,225,5.8,6.0,70,0.00,,,0.00,VWS V14.01,2013-07-18 04:20:00,
2013-07-18 00:21:00,74.5,64.1,29.26,WSW,248,2.5,5.8,70,0.00,,,0.00,VWS V14.01,2013-07-18 04:21:00,
2013-07-18 00:22:00,74.5,64.1,29.26,WSW,248,4.0,4.0,70,0.00,,,0.00,VWS V14.01,2013-07-18 04:22:00,
2013-07-18 00:23:00,74.5,64.1,29.26,WSW,248,4.9,4.9,70,0.00,,,0.00,VWS V14.01,2013-07-18 04:23:00,
2013-07-18 00:24:00,74.3,63.9,29.26,WSW,248,4.9,4.9,70,0.00,,,0.00,VWS V14.01,2013-07-18 04:24:00,
2013-07-18 00:25:00,74.5,64.1,29.26,WSW,248,3.8,6.0,70,0.00,,,0.00,VWS V14.01,2013-07-18 04:25:00,
2013-07-18 00:26:00,74.3,64.3,29.26,WSW,248,3.8,4.7,71,0.00,,,0.00,VWS V14.01,2013-07-18 04:26:00,
2013-07-18 00:27:00,74.3,64.3,29.26,WNW,292,4.0,4.5,71,0.00,,,0.00,VWS V14.01,2013-07-18 04:27:00,
2013-07-18 00:28:00,74.3,64.3,29.26,WSW,248,4.0,4.7,71,0.00,,,0.00,VWS V14.01,2013-07-18 04:28:00,
2013-07-18 00:29:00,74.3,64.3,29.26,SSW,202,3.1,4.0,71,0.00,,,0.00,VWS V14.01,2013-07-18 04:29:00,
2013-07-18 00:30:00,74.3,63.9,29.26,WNW,292,4.0,4.9,70,0.00,,,0.00,VWS V14.01,2013-07-18 04:30:00,
2013-07-18 00:31:00,74.3,64.7,29.26,WSW,248,2.5,3.8,72,0.00,,,0.00,VWS V14.01,2013-07-18 04:31:00,
2013-07-18 00:32:00,74.3,64.7,29.23,WSW,248,3.8,3.8,72,0.00,,,0.00,VWS V14.01,2013-07-18 04:32:00,
2013-07-18 00:33:00,74.3,64.7,29.23,WSW,248,3.6,3.8,72,0.00,,,0.00,VWS V14.01,2013-07-18 04:33:00,
2013-07-18 00:34:00,74.3,64.7,29.23,WSW,248,3.6,3.6,72,0.00,,,0.00,VWS V14.01,2013-07-18 04:34:00,
2013-07-18 00:35:00,74.3,64.3,29.26,WSW,248,2.0,3.1,71,0.00,,,0.00,VWS V14.01,2013-07-18 04:35:00,
2013-07-18 00:36:00,74.3,64.7,29.23,SSW,202,4.9,4.9,72,0.00,,,0.00,VWS V14.01,2013-07-18 04:36:00,
2013-07-18 00:37:00,74.1,64.9,29.23,SW,225,3.1,4.9,73,0.00,,,0.00,VWS V14.01,2013-07-18 04:37:00,
2013-07-18 00:38:00,74.1,64.9,29.23,WSW,248,3.6,4.0,73,0.00,,,0.00,VWS V14.01,2013-07-18 04:38:00,
2013-07-18 00:39:00,74.3,65.1,29.23,SW,225,3.6,4.9,73,0.00,,,0.00,VWS V14.01,2013-07-18 04:39:00,
2013-07-18 00:40:00,74.3,64.7,29.23,WSW,248,2.9,3.6,72,0.00,,,0.00,VWS V14.01,2013-07-18 04:40:00,
2013-07-18 00:41:00,74.3,65.1,29.23,WSW,248,4.0,5.8,73,0.00,,,0.00,VWS V14.01,2013-07-18 04:41:00,
2013-07-18 00:42:00,74.3,65.1,29.23,WSW,248,3.1,4.0,73,0.00,,,0.00,VWS V14.01,2013-07-18 04:42:00,
2013-07-18 00:43:00,74.3,65.1,29.23,WSW,248,4.0,6.5,73,0.00,,,0.00,VWS V14.01,2013-07-18 04:43:00,
2013-07-18 00:44:00,74.3,65.5,29.23,SW,225,4.0,4.0,74,0.00,,,0.00,VWS V14.01,2013-07-18 04:44:00,
2013-07-18 00:45:00,74.3,65.1,29.23,WSW,248,2.7,3.6,73,0.00,,,0.00,VWS V14.01,2013-07-18 04:45:00,
2013-07-18 00:46:00,74.3,65.9,29.23,WSW,248,5.4,5.4,75,0.00,,,0.00,VWS V14.01,2013-07-18 04:46:00,
2013-07-18 00:47:00,74.3,65.9,29.26,SW,225,4.0,5.4,75,0.00,,,0.00,VWS V14.01,2013-07-18 04:47:00,
2013-07-18 00:48:00,74.3,65.9,29.26,SW,225,3.8,4.0,75,0.00,,,0.00,VWS V14.01,2013-07-18 04:48:00,
2013-07-18 00:49:00,74.3,65.9,29.26,WSW,248,6.3,6.3,75,0.00,,,0.00,VWS V14.01,2013-07-18 04:49:00,
2013-07-18 00:50:00,74.3,65.5,29.23,SW,225,4.0,4.0,74,0.00,,,0.00,VWS V14.01,2013-07-18 04:50:00,
2013-07-18 00:51:00,74.3,66.2,29.26,WSW,248,4.0,6.3,76,0.00,,,0.00,VWS V14.01,2013-07-18 04:51:00,
2013-07-18 00:52:00,74.3,66.2,29.26,SW,225,3.4,4.7,76,0.00,,,0.00,VWS V14.01,2013-07-18 04:52:00,
2013-07-18 00:53:00,74.3,66.2,29.26,SSW,202,7.2,7.2,76,0.00,,,0.00,VWS V14.01,2013-07-18 04:53:00,
2013-07-18 00:54:00,74.3,66.2,29.26,SW,225,3.6,7.2,76,0.00,,,0.00,VWS V14.01,2013-07-18 04:54:00,
2013-07-18 00:55:00,74.3,66.2,29.26,SW,225,3.8,6.3,76,0.00,,,0.00,VWS V14.01,2013-07-18 04:55:00,
2013-07-18 00:56:00,74.3,66.2,29.26,SW,225,4.9,5.4,76,0.00,,,0.00,VWS V14.01,2013-07-18 04:56:00,
2013-07-18 00:57:00,74.3,66.2,29.26,SW,225,2.9,4.9,76,0.00,,,0.00,VWS V14.01,2013-07-18 04:57:00,
2013-07-18 00:58:00,74.3,66.2,29.26,SW,225,4.3,4.3,76,0.00,,,0.00,VWS V14.01,2013-07-18 04:58:00,
2013-07-18 00:59:00,74.3,66.2,29.26,SW,225,3.1,4.3,76,0.00,,,0.00,VWS V14.01,2013-07-18 04:59:00,
2013-07-18 01:00:00,74.3,66.2,29.26,SW,225,3.6,3.6,76,0.00,,,0.00,VWS V14.01,2013-07-18 05:00:00,
2013-07-18 01:01:00,74.3,66.6,29.26,SW,225,4.3,4.3,77,0.00,,,0.00,VWS V14.01,2013-07-18 05:01:00,
2013-07-18 01:02:00,74.3,66.6,29.26,SW,225,3.6,5.8,77,0.00,,,0.00,VWS V14.01,2013-07-18 05:02:00,
2013-07-18 01:03:00,74.3,66.6,29.26,SW,225,4.0,4.0,77,0.00,,,0.00,VWS V14.01,2013-07-18 05:03:00,
2013-07-18 01:04:00,74.3,66.6,29.26,SW,225,3.8,4.0,77,0.00,,,0.00,VWS V14.01,2013-07-18 05:04:00,
2013-07-18 01:05:00,74.3,66.2,29.26,SSW,202,4.9,4.9,76,0.00,,,0.00,VWS V14.01,2013-07-18 05:05:00,
2013-07-18 01:06:00,74.3,66.6,29.26,WSW,248,3.8,5.6,77,0.00,,,0.00,VWS V14.01,2013-07-18 05:06:00,
2013-07-18 01:07:00,74.3,66.6,29.26,SW,225,3.6,3.8,77,0.00,,,0.00,VWS V14.01,2013-07-18 05:07:00,
2013-07-18 01:08:00,74.3,66.6,29.26,WSW,248,5.6,5.6,77,0.00,,,0.00,VWS V14.01,2013-07-18 05:08:00,
2013-07-18 01:09:00,74.3,66.6,29.26,WSW,248,3.4,5.6,77,0.00,,,0.00,VWS V14.01,2013-07-18 05:09:00,
2013-07-18 01:10:00,74.3,66.6,29.26,SW,225,3.4,3.8,77,0.00,,,0.00,VWS V14.01,2013-07-18 05:10:00,
2013-07-18 01:11:00,74.3,66.6,29.26,West,270,3.1,3.6,77,0.00,,,0.00,VWS V14.01,2013-07-18 05:11:00,
2013-07-18 01:12:00,74.3,66.6,29.26,SW,225,6.3,6.3,77,0.00,,,0.00,VWS V14.01,2013-07-18 05:12:00,
2013-07-18 01:13:00,74.3,66.6,29.26,SW,225,3.4,6.3,77,0.00,,,0.00,VWS V14.01,2013-07-18 05:13:00,
2013-07-18 01:14:00,74.3,66.6,29.26,WSW,248,5.4,5.4,77,0.00,,,0.00,VWS V14.01,2013-07-18 05:14:00,
2013-07-18 01:15:00,74.3,66.6,29.26,WSW,248,2.9,3.8,77,0.00,,,0.00,VWS V14.01,2013-07-18 05:15:00,
2013-07-18 01:16:00,74.3,67.0,29.26,WSW,248,3.6,3.6,78,0.00,,,0.00,VWS V14.01,2013-07-18 05:16:00,
2013-07-18 01:17:00,74.3,67.0,29.23,SW,225,2.9,3.6,78,0.00,,,0.00,VWS V14.01,2013-07-18 05:17:00,
2013-07-18 01:18:00,74.3,67.0,29.23,WSW,248,5.6,5.6,78,0.00,,,0.00,VWS V14.01,2013-07-18 05:18:00,
2013-07-18 01:19:00,74.3,67.0,29.23,WSW,248,3.6,5.6,78,0.00,,,0.00,VWS V14.01,2013-07-18 05:19:00,
2013-07-18 01:20:00,74.3,66.6,29.26,SW,225,5.6,5.6,77,0.00,,,0.00,VWS V14.01,2013-07-18 05:20:00,
2013-07-18 01:21:00,74.1,66.8,29.23,SSW,202,4.0,4.0,78,0.00,,,0.00,VWS V14.01,2013-07-18 05:21:00,
2013-07-18 01:22:00,74.1,66.8,29.23,SW,225,3.4,4.3,78,0.00,,,0.00,VWS V14.01,2013-07-18 05:22:00,
2013-07-18 01:23:00,74.1,66.8,29.23,SSW,202,2.7,3.4,78,0.00,,,0.00,VWS V14.01,2013-07-18 05:23:00,
2013-07-18 01:24:00,74.1,66.8,29.23,SW,225,3.8,4.7,78,0.00,,,0.00,VWS V14.01,2013-07-18 05:24:00,
2013-07-18 01:25:00,74.1,66.8,29.23,SW,225,4.3,4.3,78,0.00,,,0.00,VWS V14.01,2013-07-18 05:25:00,
2013-07-18 01:26:00,74.1,66.8,29.23,SW,225,3.8,4.7,78,0.00,,,0.00,VWS V14.01,2013-07-18 05:26:00,
2013-07-18 01:27:00,74.1,66.8,29.23,SW,225,3.8,3.8,78,0.00,,,0.00,VWS V14.01,2013-07-18 05:27:00,
2013-07-18 01:28:00,74.1,66.8,29.23,WSW,248,2.7,3.8,78,0.00,,,0.00,VWS V14.01,2013-07-18 05:28:00,
2013-07-18 01:29:00,74.1,66.8,29.23,WSW,248,3.6,4.3,78,0.00,,,0.00,VWS V14.01,2013-07-18 05:29:00,
2013-07-18 01:30:00,74.1,66.8,29.23,SW,225,5.6,5.6,78,0.00,,,0.00,VWS V14.01,2013-07-18 05:30:00,
2013-07-18 01:31:00,74.1,67.2,29.23,SSW,202,3.4,5.8,79,0.00,,,0.00,VWS V14.01,2013-07-18 05:31:00,
2013-07-18 01:33:00,74.1,67.2,29.23,SW,225,6.0,6.0,79,0.00,,,0.00,VWS V14.01,2013-07-18 05:33:00,
2013-07-18 01:34:00,74.1,67.2,29.23,WSW,248,3.4,6.0,79,0.00,,,0.00,VWS V14.01,2013-07-18 05:34:00,
2013-07-18 01:35:00,74.1,67.2,29.23,SSW,202,2.7,3.6,79,0.00,,,0.00,VWS V14.01,2013-07-18 05:35:00,
2013-07-18 01:36:00,74.1,67.2,29.23,SW,225,3.1,3.4,79,0.00,,,0.00,VWS V14.01,2013-07-18 05:36:00,
2013-07-18 01:37:00,74.1,67.2,29.23,SW,225,3.1,4.3,79,0.00,,,0.00,VWS V14.01,2013-07-18 05:37:00,
2013-07-18 01:38:00,74.1,67.2,29.23,WSW,248,3.6,3.8,79,0.00,,,0.00,VWS V14.01,2013-07-18 05:38:00,
2013-07-18 01:39:00,74.1,67.2,29.23,SW,225,4.7,4.9,79,0.00,,,0.00,VWS V14.01,2013-07-18 05:39:00,
2013-07-18 01:40:00,74.1,67.2,29.23,SW,225,2.5,4.0,79,0.00,,,0.00,VWS V14.01,2013-07-18 05:40:00,
2013-07-18 01:41:00,73.9,67.0,29.23,SW,225,3.1,4.7,79,0.00,,,0.00,VWS V14.01,2013-07-18 05:41:00,
2013-07-18 01:42:00,73.9,67.0,29.23,WSW,248,2.5,5.6,79,0.00,,,0.00,VWS V14.01,2013-07-18 05:42:00,
2013-07-18 01:43:00,73.9,67.0,29.23,SW,225,4.0,4.0,79,0.00,,,0.00,VWS V14.01,2013-07-18 05:43:00,
2013-07-18 01:44:00,73.9,67.0,29.23,SSW,202,2.7,4.0,79,0.00,,,0.00,VWS V14.01,2013-07-18 05:44:00,
2013-07-18 01:45:00,73.9,67.0,29.23,WNW,292,3.6,4.7,79,0.00,,,0.00,VWS V14.01,2013-07-18 05:45:00,
2013-07-18 01:47:00,73.9,67.0,29.23,SW,225,2.7,3.8,79,0.00,,,0.00,VWS V14.01,2013-07-18 05:47:00,
2013-07-18 01:48:00,73.9,67.0,29.23,SW,225,2.7,2.9,79,0.00,,,0.00,VWS V14.01,2013-07-18 05:48:00,
2013-07-18 01:49:00,73.9,67.0,29.23,SSW,202,2.0,2.9,79,0.00,,,0.00,VWS V14.01,2013-07-18 05:49:00,
2013-07-18 01:50:00,73.9,67.0,29.23,WSW,248,4.0,4.9,79,0.00,,,0.00,VWS V14.01,2013-07-18 05:50:00,
2013-07-18 01:51:00,73.9,67.4,29.23,WSW,248,2.5,3.6,80,0.00,,,0.00,VWS V14.01,2013-07-18 05:51:00,
2013-07-18 01:52:00,73.9,67.4,29.23,SSW,202,3.1,3.1,80,0.00,,,0.00,VWS V14.01,2013-07-18 05:52:00,
2013-07-18 01:53:00,73.8,66.8,29.23,SSW,202,1.1,3.1,79,0.00,,,0.00,VWS V14.01,2013-07-18 05:53:00,
2013-07-18 01:55:00,73.9,67.0,29.23,SSW,202,2.5,2.5,79,0.00,,,0.00,VWS V14.01,2013-07-18 05:55:00,
2013-07-18 01:56:00,73.8,66.8,29.23,SE,135,2.5,2.5,79,0.00,,,0.00,VWS V14.01,2013-07-18 05:56:00,
2013-07-18 01:57:00,73.8,66.8,29.23,SSW,202,1.3,2.5,79,0.00,,,0.00,VWS V14.01,2013-07-18 05:57:00,
2013-07-18 01:58:00,73.8,66.8,29.23,WSW,248,3.8,3.8,79,0.00,,,0.00,VWS V14.01,2013-07-18 05:58:00,
2013-07-18 01:59:00,73.8,66.8,29.23,South,180,1.3,3.8,79,0.00,,,0.00,VWS V14.01,2013-07-18 05:59:00,
2013-07-18 02:00:00,73.8,67.2,29.23,West,270,2.5,3.6,80,0.00,,,0.00,VWS V14.01,2013-07-18 06:00:00,
2013-07-18 02:01:00,73.8,67.2,29.23,SSW,202,1.6,2.5,80,0.00,,,0.00,VWS V14.01,2013-07-18 06:01:00,
2013-07-18 02:02:00,73.8,67.2,29.23,SSE,158,3.1,4.3,80,0.00,,,0.00,VWS V14.01,2013-07-18 06:02:00,
2013-07-18 02:03:00,73.8,67.2,29.23,South,180,2.0,4.0,80,0.00,,,0.00,VWS V14.01,2013-07-18 06:03:00,
2013-07-18 02:04:00,73.8,67.2,29.23,SSE,158,2.9,2.9,80,0.00,,,0.00,VWS V14.01,2013-07-18 06:04:00,
2013-07-18 02:05:00,73.8,66.8,29.23,SSW,202,1.6,3.1,79,0.00,,,0.00,VWS V14.01,2013-07-18 06:05:00,
2013-07-18 02:07:00,73.8,67.2,29.23,WSW,248,5.6,5.6,80,0.00,,,0.00,VWS V14.01,2013-07-18 06:07:00,
2013-07-18 02:08:00,73.8,67.2,29.23,WSW,248,3.8,5.6,80,0.00,,,0.00,VWS V14.01,2013-07-18 06:08:00,
2013-07-18 02:09:00,73.8,67.2,29.23,SW,225,2.9,3.8,80,0.00,,,0.00,VWS V14.01,2013-07-18 06:09:00,
2013-07-18 02:10:00,73.8,67.6,29.23,SW,225,2.5,4.3,81,0.00,,,0.00,VWS V14.01,2013-07-18 06:10:00,
2013-07-18 02:11:00,73.8,67.2,29.23,WSW,248,5.6,5.6,80,0.00,,,0.00,VWS V14.01,2013-07-18 06:11:00,
2013-07-18 02:12:00,73.8,67.6,29.23,SW,225,3.6,4.0,81,0.00,,,0.00,VWS V14.01,2013-07-18 06:12:00,
2013-07-18 02:13:00,73.8,67.6,29.23,SW,225,3.6,3.6,81,0.00,,,0.00,VWS V14.01,2013-07-18 06:13:00,
2013-07-18 02:14:00,73.6,67.4,29.23,WSW,248,3.1,7.2,81,0.00,,,0.00,VWS V14.01,2013-07-18 06:14:00,
2013-07-18 02:15:00,73.6,67.4,29.23,SW,225,5.6,5.6,81,0.00,,,0.00,VWS V14.01,2013-07-18 06:15:00,
2013-07-18 02:16:00,73.8,67.6,29.23,SW,225,3.6,4.3,81,0.00,,,0.00,VWS V14.01,2013-07-18 06:16:00,
2013-07-18 02:17:00,73.6,67.4,29.20,SSW,202,2.5,4.3,81,0.00,,,0.00,VWS V14.01,2013-07-18 06:17:00,
2013-07-18 02:18:00,73.6,67.4,29.20,SSW,202,1.3,2.9,81,0.00,,,0.00,VWS V14.01,2013-07-18 06:18:00,
2013-07-18 02:19:00,73.6,67.4,29.20,SSW,202,2.2,4.9,81,0.00,,,0.00,VWS V14.01,2013-07-18 06:19:00,
2013-07-18 02:20:00,73.6,67.4,29.20,SW,225,2.7,2.7,81,0.00,,,0.00,VWS V14.01,2013-07-18 06:20:00,
2013-07-18 02:21:00,73.6,67.4,29.23,SW,225,5.6,5.6,81,0.00,,,0.00,VWS V14.01,2013-07-18 06:21:00,
2013-07-18 02:22:00,73.6,67.4,29.20,South,180,2.0,3.8,81,0.00,,,0.00,VWS V14.01,2013-07-18 06:22:00,
2013-07-18 02:23:00,73.6,67.4,29.20,SSW,202,2.0,2.0,81,0.00,,,0.00,VWS V14.01,2013-07-18 06:23:00,
2013-07-18 02:24:00,73.6,67.4,29.20,SSW,202,4.0,4.0,81,0.00,,,0.00,VWS V14.01,2013-07-18 06:24:00,
2013-07-18 02:25:00,73.6,67.4,29.20,SSW,202,4.7,4.7,81,0.00,,,0.00,VWS V14.01,2013-07-18 06:25:00,
2013-07-18 02:26:00,73.6,67.4,29.20,SW,225,3.1,3.8,81,0.00,,,0.00,VWS V14.01,2013-07-18 06:26:00,
2013-07-18 02:27:00,73.6,67.4,29.20,SSE,158,3.4,3.4,81,0.00,,,0.00,VWS V14.01,2013-07-18 06:27:00,
2013-07-18 02:28:00,73.6,67.4,29.20,SW,225,1.1,3.4,81,0.00,,,0.00,VWS V14.01,2013-07-18 06:28:00,
2013-07-18 02:29:00,73.4,67.2,29.20,SSW,202,2.2,2.5,81,0.00,,,0.00,VWS V14.01,2013-07-18 06:29:00,
2013-07-18 02:30:00,73.4,67.2,29.20,South,180,2.7,2.7,81,0.00,,,0.00,VWS V14.01,2013-07-18 06:30:00,
2013-07-18 02:31:00,73.6,67.4,29.20,SW,225,4.0,4.7,81,0.00,,,0.00,VWS V14.01,2013-07-18 06:31:00,
2013-07-18 02:32:00,73.4,67.2,29.20,West,270,3.4,3.4,81,0.00,,,0.00,VWS V14.01,2013-07-18 06:32:00,
2013-07-18 02:33:00,73.4,67.2,29.20,SSW,202,2.9,3.4,81,0.00,,,0.00,VWS V14.01,2013-07-18 06:33:00,
2013-07-18 02:34:00,73.4,67.2,29.20,SW,225,1.6,2.9,81,0.00,,,0.00,VWS V14.01,2013-07-18 06:34:00,
2013-07-18 02:35:00,73.4,67.2,29.20,SW,225,1.1,4.0,81,0.00,,,0.00,VWS V14.01,2013-07-18 06:35:00,
2013-07-18 02:36:00,73.4,67.2,29.20,SW,225,2.0,2.0,81,0.00,,,0.00,VWS V14.01,2013-07-18 06:36:00,
2013-07-18 02:37:00,73.4,67.2,29.20,SSW,202,1.6,2.9,81,0.00,,,0.00,VWS V14.01,2013-07-18 06:37:00,
2013-07-18 02:38:00,73.4,67.2,29.20,SSW,202,1.6,2.7,81,0.00,,,0.00,VWS V14.01,2013-07-18 06:38:00,
2013-07-18 02:39:00,73.6,67.4,29.20,SSE,158,3.1,3.1,81,0.00,,,0.00,VWS V14.01,2013-07-18 06:39:00,
2013-07-18 02:40:00,73.6,67.4,29.20,SSW,202,3.1,3.4,81,0.00,,,0.00,VWS V14.01,2013-07-18 06:40:00,
2013-07-18 02:41:00,73.4,67.2,29.20,SSW,202,1.6,2.9,81,0.00,,,0.00,VWS V14.01,2013-07-18 06:41:00,
2013-07-18 02:42:00,73.6,67.4,29.20,WSW,248,1.3,1.3,81,0.00,,,0.00,VWS V14.01,2013-07-18 06:42:00,
2013-07-18 02:43:00,73.6,67.4,29.20,WSW,248,1.3,1.3,81,0.00,,,0.00,VWS V14.01,2013-07-18 06:43:00,
2013-07-18 02:44:00,73.6,67.4,29.20,SW,225,2.7,3.4,81,0.00,,,0.00,VWS V14.01,2013-07-18 06:44:00,
2013-07-18 02:45:00,73.6,67.4,29.20,SW,225,3.4,3.4,81,0.00,,,0.00,VWS V14.01,2013-07-18 06:45:00,
2013-07-18 02:46:00,73.8,67.6,29.20,SW,225,2.0,3.4,81,0.00,,,0.00,VWS V14.01,2013-07-18 06:46:00,
2013-07-18 02:47:00,73.6,67.4,29.20,South,180,1.1,1.1,81,0.00,,,0.00,VWS V14.01,2013-07-18 06:47:00,
2013-07-18 02:48:00,73.8,67.6,29.20,WSW,248,2.0,2.0,81,0.00,,,0.00,VWS V14.01,2013-07-18 06:48:00,
2013-07-18 02:49:00,73.8,67.6,29.20,West,270,2.5,2.5,81,0.00,,,0.00,VWS V14.01,2013-07-18 06:49:00,
2013-07-18 02:50:00,73.8,67.2,29.20,WSW,248,0.9,2.5,80,0.00,,,0.00,VWS V14.01,2013-07-18 06:50:00,
2013-07-18 02:51:00,73.8,67.2,29.20,South,180,6.0,6.0,80,0.00,,,0.00,VWS V14.01,2013-07-18 06:51:00,
2013-07-18 02:52:00,73.8,67.6,29.20,SW,225,0.0,2.0,81,0.00,,,0.00,VWS V14.01,2013-07-18 06:52:00,
2013-07-18 02:53:00,73.9,67.8,29.20,South,180,0.9,4.3,81,0.00,,,0.00,VWS V14.01,2013-07-18 06:53:00,
2013-07-18 02:54:00,73.9,67.8,29.20,SSW,202,2.0,2.0,81,0.00,,,0.00,VWS V14.01,2013-07-18 06:54:00,
2013-07-18 02:55:00,73.9,67.8,29.20,WSW,248,2.7,2.7,81,0.00,,,0.00,VWS V14.01,2013-07-18 06:55:00,
2013-07-18 02:56:00,73.9,67.8,29.20,WSW,248,3.1,3.1,81,0.00,,,0.00,VWS V14.01,2013-07-18 06:56:00,
2013-07-18 02:57:00,73.8,67.2,29.20,SE,135,3.8,6.0,80,0.00,,,0.00,VWS V14.01,2013-07-18 06:57:00,
2013-07-18 02:59:00,74.1,67.6,29.20,SSE,158,0.9,0.9,80,0.00,,,0.00,VWS V14.01,2013-07-18 06:59:00,
2013-07-18 03:00:00,74.3,67.7,29.20,South,180,2.7,2.7,80,0.00,,,0.00,VWS V14.01,2013-07-18 07:00:00,
2013-07-18 03:01:00,74.3,67.7,29.20,WSW,248,0.0,2.7,80,0.00,,,0.00,VWS V14.01,2013-07-18 07:01:00,
2013-07-18 03:02:00,74.3,67.7,29.20,WNW,292,0.0,0.0,80,0.00,,,0.00,VWS V14.01,2013-07-18 07:02:00,
2013-07-18 03:03:00,74.3,67.7,29.20,WSW,248,3.1,3.1,80,0.00,,,0.00,VWS V14.01,2013-07-18 07:03:00,
2013-07-18 03:04:00,74.3,67.7,29.20,South,180,2.5,3.1,80,0.00,,,0.00,VWS V14.01,2013-07-18 07:04:00,
2013-07-18 03:05:00,74.3,67.7,29.20,South,180,4.0,4.0,80,0.00,,,0.00,VWS V14.01,2013-07-18 07:05:00,
2013-07-18 03:06:00,74.5,67.9,29.20,SSW,202,1.1,4.0,80,0.00,,,0.00,VWS V14.01,2013-07-18 07:06:00,
2013-07-18 03:07:00,74.5,67.9,29.20,SW,225,2.7,2.7,80,0.00,,,0.00,VWS V14.01,2013-07-18 07:07:00,
2013-07-18 03:08:00,74.5,67.6,29.20,WSW,248,2.5,2.7,79,0.00,,,0.00,VWS V14.01,2013-07-18 07:08:00,
2013-07-18 03:09:00,74.5,67.6,29.20,West,270,0.9,2.5,79,0.00,,,0.00,VWS V14.01,2013-07-18 07:09:00,
2013-07-18 03:10:00,74.5,67.6,29.20,SW,225,1.6,1.6,79,0.00,,,0.00,VWS V14.01,2013-07-18 07:10:00,
2013-07-18 03:11:00,74.5,67.6,29.20,WSW,248,0.9,1.6,79,0.00,,,0.00,VWS V14.01,2013-07-18 07:11:00,
2013-07-18 03:12:00,74.5,67.6,29.20,WSW,248,2.0,2.0,79,0.00,,,0.00,VWS V14.01,2013-07-18 07:12:00,
2013-07-18 03:13:00,74.5,67.6,29.20,SSW,202,2.7,2.7,79,0.00,,,0.00,VWS V14.01,2013-07-18 07:13:00,
2013-07-18 03:14:00,74.5,67.6,29.20,SSW,202,3.1,3.1,79,0.00,,,0.00,VWS V14.01,2013-07-18 07:14:00,
2013-07-18 03:15:00,74.5,67.6,29.20,WSW,248,2.0,3.1,79,0.00,,,0.00,VWS V14.01,2013-07-18 07:15:00,
2013-07-18 03:16:00,74.5,67.6,29.20,WSW,248,4.0,4.0,79,0.00,,,0.00,VWS V14.01,2013-07-18 07:16:00,
2013-07-18 03:17:00,74.5,67.6,29.20,WSW,248,3.1,4.0,79,0.00,,,0.00,VWS V14.01,2013-07-18 07:17:00,
2013-07-18 03:18:00,74.5,67.6,29.20,SSE,158,0.9,3.1,79,0.00,,,0.00,VWS V14.01,2013-07-18 07:18:00,
2013-07-18 03:19:00,74.7,67.3,29.20,SSW,202,4.0,4.0,78,0.00,,,0.00,VWS V14.01,2013-07-18 07:19:00,
2013-07-18 03:20:00,74.5,67.2,29.20,SW,225,3.6,4.0,78,0.00,,,0.00,VWS V14.01,2013-07-18 07:20:00,
2013-07-18 03:21:00,74.5,67.2,29.20,SSW,202,2.7,3.6,78,0.00,,,0.00,VWS V14.01,2013-07-18 07:21:00,
2013-07-18 03:22:00,74.5,67.2,29.20,SW,225,3.1,3.1,78,0.00,,,0.00,VWS V14.01,2013-07-18 07:22:00,
2013-07-18 03:23:00,74.5,67.2,29.20,SSW,202,2.9,3.1,78,0.00,,,0.00,VWS V14.01,2013-07-18 07:23:00,
2013-07-18 03:24:00,74.5,67.2,29.20,SSW,202,3.4,3.4,78,0.00,,,0.00,VWS V14.01,2013-07-18 07:24:00,
2013-07-18 03:25:00,74.5,67.2,29.20,WSW,248,2.2,3.4,78,0.00,,,0.00,VWS V14.01,2013-07-18 07:25:00,
2013-07-18 03:26:00,74.5,67.2,29.20,WSW,248,3.8,3.8,78,0.00,,,0.00,VWS V14.01,2013-07-18 07:26:00,
2013-07-18 03:28:00,74.5,67.2,29.20,SSW,202,2.7,3.8,78,0.00,,,0.00,VWS V14.01,2013-07-18 07:28:00,
2013-07-18 03:29:00,74.5,67.2,29.20,WSW,248,1.3,2.7,78,0.00,,,0.00,VWS V14.01,2013-07-18 07:29:00,
2013-07-18 03:30:00,74.5,67.2,29.20,SW,225,1.6,1.6,78,0.00,,,0.00,VWS V14.01,2013-07-18 07:30:00,
2013-07-18 03:31:00,74.5,67.2,29.20,West,270,5.4,5.4,78,0.00,,,0.00,VWS V14.01,2013-07-18 07:31:00,
2013-07-18 03:32:00,74.5,67.2,29.20,SW,225,2.2,5.4,78,0.00,,,0.00,VWS V14.01,2013-07-18 07:32:00,
2013-07-18 03:33:00,74.5,67.2,29.20,SSW,202,1.6,2.2,78,0.00,,,0.00,VWS V14.01,2013-07-18 07:33:00,
2013-07-18 03:34:00,74.5,67.2,29.20,West,270,0.9,1.6,78,0.00,,,0.00,VWS V14.01,2013-07-18 07:34:00,
2013-07-18 03:35:00,74.5,67.2,29.20,NW,315,1.3,1.3,78,0.00,,,0.00,VWS V14.01,2013-07-18 07:35:00,
2013-07-18 03:36:00,74.5,67.2,29.20,West,270,0.0,1.3,78,0.00,,,0.00,VWS V14.01,2013-07-18 07:36:00,
2013-07-18 03:37:00,74.3,67.0,29.20,North,0,1.6,1.6,78,0.00,,,0.00,VWS V14.01,2013-07-18 07:37:00,
2013-07-18 03:38:00,74.3,67.0,29.20,NNE,22,0.0,1.6,78,0.00,,,0.00,VWS V14.01,2013-07-18 07:38:00,
2013-07-18 03:39:00,74.1,66.5,29.20,North,0,0.0,0.0,77,0.00,,,0.00,VWS V14.01,2013-07-18 07:39:00,
2013-07-18 03:40:00,74.1,66.8,29.20,North,0,1.6,1.6,78,0.00,,,0.00,VWS V14.01,2013-07-18 07:40:00,
2013-07-18 03:41:00,74.1,66.8,29.20,North,0,0.0,1.6,78,0.00,,,0.00,VWS V14.01,2013-07-18 07:41:00,
2013-07-18 03:42:00,74.1,66.5,29.20,North,0,0.0,0.0,77,0.00,,,0.00,VWS V14.01,2013-07-18 07:42:00,
2013-07-18 03:43:00,74.1,66.5,29.20,NNW,338,0.0,0.0,77,0.00,,,0.00,VWS V14.01,2013-07-18 07:43:00,
2013-07-18 03:44:00,74.1,66.5,29.20,NNW,338,0.0,0.0,77,0.00,,,0.00,VWS V14.01,2013-07-18 07:44:00,
2013-07-18 03:45:00,73.9,66.3,29.20,NNW,338,0.0,0.0,77,0.00,,,0.00,VWS V14.01,2013-07-18 07:45:00,
2013-07-18 03:46:00,73.9,66.7,29.20,NNW,338,0.0,0.0,78,0.00,,,0.00,VWS V14.01,2013-07-18 07:46:00,
2013-07-18 03:47:00,73.9,66.3,29.20,NNW,338,0.0,0.0,77,0.00,,,0.00,VWS V14.01,2013-07-18 07:47:00,
2013-07-18 03:48:00,73.9,66.3,29.20,South,180,0.0,0.0,77,0.00,,,0.00,VWS V14.01,2013-07-18 07:48:00,
2013-07-18 03:50:00,73.9,66.3,29.20,SW,225,0.0,0.0,77,0.00,,,0.00,VWS V14.01,2013-07-18 07:50:00,
2013-07-18 03:51:00,73.9,66.3,29.20,SSW,202,1.6,1.6,77,0.00,,,0.00,VWS V14.01,2013-07-18 07:51:00,
2013-07-18 03:53:00,73.9,66.7,29.20,WSW,248,2.0,2.0,78,0.00,,,0.00,VWS V14.01,2013-07-18 07:53:00,
2013-07-18 03:54:00,73.9,66.7,29.20,SSW,202,0.0,2.0,78,0.00,,,0.00,VWS V14.01,2013-07-18 07:54:00,
2013-07-18 03:55:00,73.9,66.7,29.20,SSW,202,0.9,0.9,78,0.00,,,0.00,VWS V14.01,2013-07-18 07:55:00,
2013-07-18 03:57:00,73.9,66.7,29.20,SSE,158,0.0,0.9,78,0.00,,,0.00,VWS V14.01,2013-07-18 07:57:00,
2013-07-18 03:58:00,73.9,66.7,29.20,SSW,202,1.6,1.6,78,0.00,,,0.00,VWS V14.01,2013-07-18 07:58:00,
2013-07-18 03:59:00,73.9,66.7,29.20,SSW,202,1.1,1.6,78,0.00,,,0.00,VWS V14.01,2013-07-18 07:59:00,
2013-07-18 04:00:00,73.9,66.7,29.20,SSW,202,0.0,1.1,78,0.00,,,0.00,VWS V14.01,2013-07-18 08:00:00,
2013-07-18 04:01:00,73.8,66.5,29.20,SSW,202,0.0,0.0,78,0.00,,,0.00,VWS V14.01,2013-07-18 08:01:00,
2013-07-18 04:02:00,73.8,66.8,29.20,South,180,2.2,2.2,79,0.00,,,0.00,VWS V14.01,2013-07-18 08:02:00,
2013-07-18 04:03:00,73.8,66.8,29.20,South,180,2.9,2.9,79,0.00,,,0.00,VWS V14.01,2013-07-18 08:03:00,
2013-07-18 04:04:00,73.8,66.8,29.20,SSW,202,0.0,2.9,79,0.00,,,0.00,VWS V14.01,2013-07-18 08:04:00,
2013-07-18 04:05:00,73.8,66.8,29.20,South,180,3.1,3.1,79,0.00,,,0.00,VWS V14.01,2013-07-18 08:05:00,
2013-07-18 04:06:00,73.8,66.8,29.20,SW,225,2.0,3.1,79,0.00,,,0.00,VWS V14.01,2013-07-18 08:06:00,
2013-07-18 04:08:00,73.6,66.7,29.20,South,180,0.0,2.0,79,0.00,,,0.00,VWS V14.01,2013-07-18 08:08:00,
2013-07-18 04:09:00,73.6,66.7,29.20,SSW,202,1.1,1.1,79,0.00,,,0.00,VWS V14.01,2013-07-18 08:09:00,
2013-07-18 04:10:00,73.6,66.7,29.20,South,180,2.5,2.5,79,0.00,,,0.00,VWS V14.01,2013-07-18 08:10:00,
2013-07-18 04:11:00,73.6,67.0,29.20,SW,225,4.3,4.3,80,0.00,,,0.00,VWS V14.01,2013-07-18 08:11:00,
2013-07-18 04:12:00,73.6,67.0,29.20,SSE,158,2.7,4.3,80,0.00,,,0.00,VWS V14.01,2013-07-18 08:12:00,
2013-07-18 04:13:00,73.6,67.0,29.20,SSW,202,1.6,2.7,80,0.00,,,0.00,VWS V14.01,2013-07-18 08:13:00,
2013-07-18 04:14:00,73.6,67.0,29.20,SSW,202,2.5,2.5,80,0.00,,,0.00,VWS V14.01,2013-07-18 08:14:00,
2013-07-18 04:15:00,73.6,67.0,29.20,SW,225,0.9,2.5,80,0.00,,,0.00,VWS V14.01,2013-07-18 08:15:00,
2013-07-18 04:16:00,73.6,67.0,29.20,South,180,1.6,1.6,80,0.00,,,0.00,VWS V14.01,2013-07-18 08:16:00,
2013-07-18 04:18:00,73.6,67.0,29.20,SW,225,1.3,1.6,80,0.00,,,0.00,VWS V14.01,2013-07-18 08:18:00,
2013-07-18 04:19:00,73.6,67.0,29.20,WSW,248,2.5,2.5,80,0.00,,,0.00,VWS V14.01,2013-07-18 08:19:00,
2013-07-18 04:20:00,73.6,67.4,29.20,South,180,3.6,3.6,81,0.00,,,0.00,VWS V14.01,2013-07-18 08:20:00,
2013-07-18 04:21:00,73.6,67.4,29.20,SW,225,1.1,3.6,81,0.00,,,0.00,VWS V14.01,2013-07-18 08:21:00,
2013-07-18 04:22:00,73.6,67.4,29.20,SSW,202,3.8,3.8,81,0.00,,,0.00,VWS V14.01,2013-07-18 08:22:00,
2013-07-18 04:23:00,73.6,67.4,29.20,SW,225,0.9,3.8,81,0.00,,,0.00,VWS V14.01,2013-07-18 08:23:00,
2013-07-18 04:25:00,73.6,67.4,29.20,WSW,248,0.0,0.9,81,0.00,,,0.00,VWS V14.01,2013-07-18 08:25:00,
2013-07-18 04:26:00,73.6,67.4,29.20,SSW,202,1.3,1.3,81,0.00,,,0.00,VWS V14.01,2013-07-18 08:26:00,
2013-07-18 04:28:00,73.6,67.4,29.20,South,180,0.0,1.3,81,0.00,,,0.00,VWS V14.01,2013-07-18 08:28:00,
2013-07-18 04:29:00,73.6,67.0,29.20,South,180,2.9,2.9,80,0.00,,,0.00,VWS V14.01,2013-07-18 08:29:00,
2013-07-18 04:30:00,73.6,67.4,29.20,SW,225,2.0,2.9,81,0.00,,,0.00,VWS V14.01,2013-07-18 08:30:00,
2013-07-18 04:32:00,73.6,67.4,29.20,SSE,158,0.0,2.0,81,0.00,,,0.00,VWS V14.01,2013-07-18 08:32:00,
2013-07-18 04:33:00,73.6,67.4,29.20,SSE,158,2.5,2.5,81,0.00,,,0.00,VWS V14.01,2013-07-18 08:33:00,
2013-07-18 04:34:00,73.6,67.4,29.20,SW,225,3.4,3.4,81,0.00,,,0.00,VWS V14.01,2013-07-18 08:34:00,
2013-07-18 04:35:00,73.6,67.4,29.20,SSW,202,1.1,3.4,81,0.00,,,0.00,VWS V14.01,2013-07-18 08:35:00,
2013-07-18 04:36:00,73.6,67.4,29.20,WSW,248,1.1,1.1,81,0.00,,,0.00,VWS V14.01,2013-07-18 08:36:00,
2013-07-18 04:37:00,73.6,67.4,29.20,South,180,2.9,2.9,81,0.00,,,0.00,VWS V14.01,2013-07-18 08:37:00,
2013-07-18 04:38:00,73.6,67.4,29.20,West,270,0.9,2.9,81,0.00,,,0.00,VWS V14.01,2013-07-18 08:38:00,
2013-07-18 04:39:00,73.6,67.0,29.20,SW,225,0.9,0.9,80,0.00,,,0.00,VWS V14.01,2013-07-18 08:39:00,
2013-07-18 04:40:00,73.4,66.9,29.20,SSW,202,1.1,1.1,80,0.00,,,0.00,VWS V14.01,2013-07-18 08:40:00,
2013-07-18 04:41:00,73.4,67.2,29.20,WSW,248,2.7,2.7,81,0.00,,,0.00,VWS V14.01,2013-07-18 08:41:00,
2013-07-18 04:42:00,73.4,67.2,29.20,SW,225,2.7,2.7,81,0.00,,,0.00,VWS V14.01,2013-07-18 08:42:00,
2013-07-18 04:43:00,73.4,67.2,29.20,South,180,1.1,2.7,81,0.00,,,0.00,VWS V14.01,2013-07-18 08:43:00,
2013-07-18 04:44:00,73.4,67.2,29.20,SSW,202,0.0,1.1,81,0.00,,,0.00,VWS V14.01,2013-07-18 08:44:00,
2013-07-18 04:45:00,73.4,67.2,29.20,SW,225,2.7,2.7,81,0.00,,,0.00,VWS V14.01,2013-07-18 08:45:00,
2013-07-18 04:47:00,73.4,67.2,29.20,WNW,292,2.9,2.9,81,0.00,,,0.00,VWS V14.01,2013-07-18 08:47:00,
2013-07-18 04:48:00,73.4,67.2,29.20,WSW,248,2.5,2.9,81,0.00,,,0.00,VWS V14.01,2013-07-18 08:48:00,
2013-07-18 04:49:00,73.4,67.2,29.20,SW,225,3.8,3.8,81,0.00,,,0.00,VWS V14.01,2013-07-18 08:49:00,
2013-07-18 04:51:00,73.2,67.4,29.20,West,270,0.0,3.8,82,0.00,,,0.00,VWS V14.01,2013-07-18 08:51:00,
2013-07-18 04:52:00,73.2,67.1,29.20,West,270,1.1,1.1,81,0.00,,,0.00,VWS V14.01,2013-07-18 08:52:00,
2013-07-18 04:55:00,73.2,67.4,29.20,WSW,248,1.3,1.3,82,0.00,,,0.00,VWS V14.01,2013-07-18 08:55:00,
2013-07-18 15:24:00,73.2,67.4,29.20,WSW,248,1.3,1.3,82,0.00,,,0.00,VWS V14.01,2013-07-18 19:24:00,
2013-07-18 15:28:00,86.4,70.3,29.20,NNW,338,0.9,1.3,59,0.00,,,0.00,VWS V14.01,2013-07-18 19:28:00,
2013-07-18 15:29:00,87.8,71.2,29.20,NNW,338,0.0,0.9,58,0.00,,,0.00,VWS V14.01,2013-07-18 19:29:00,
2013-07-18 15:30:00,86.4,70.3,29.20,NNW,338,1.3,1.3,59,0.00,,,0.00,VWS V14.01,2013-07-18 19:30:00,
2013-07-18 15:31:00,87.8,70.2,29.09,NNW,338,0.0,0.0,56,0.25,,,0.25,VWS V14.01,2013-07-18 19:31:00,
2013-07-18 15:32:00,87.8,70.2,29.09,NNW,338,0.9,0.9,56,0.25,,,0.25,VWS V14.01,2013-07-18 19:32:00,
2013-07-18 15:34:00,87.4,69.3,29.09,NNE,22,2.0,2.0,55,0.25,,,0.25,VWS V14.01,2013-07-18 19:34:00,
2013-07-18 15:35:00,88.0,70.8,29.09,NNW,338,0.0,0.0,57,0.25,,,0.25,VWS V14.01,2013-07-18 19:35:00,
2013-07-18 15:38:00,87.4,69.3,29.09,East,90,2.2,2.2,55,0.25,,,0.25,VWS V14.01,2013-07-18 19:38:00,
2013-07-18 15:39:00,87.4,69.3,29.09,North,0,1.3,2.7,55,0.25,,,0.25,VWS V14.01,2013-07-18 19:39:00,
2013-07-18 15:40:00,87.4,69.3,29.09,NNE,22,2.0,2.0,55,0.25,,,0.25,VWS V14.01,2013-07-18 19:40:00,
2013-07-18 15:41:00,88.7,65.3,29.09,West,270,1.1,4.0,46,0.25,,,0.25,VWS V14.01,2013-07-18 19:41:00,
2013-07-18 15:42:00,88.7,65.9,29.09,West,270,0.9,2.9,47,0.25,,,0.25,VWS V14.01,2013-07-18 19:42:00,
2013-07-18 15:43:00,88.9,65.4,29.09,West,270,0.0,0.9,46,0.25,,,0.25,VWS V14.01,2013-07-18 19:43:00,
2013-07-18 15:44:00,88.2,62.9,29.09,West,270,3.6,6.3,43,0.25,,,0.25,VWS V14.01,2013-07-18 19:44:00,
2013-07-18 15:45:00,88.2,65.4,29.09,West,270,2.7,4.0,47,0.25,,,0.25,VWS V14.01,2013-07-18 19:45:00,
2013-07-18 15:46:00,88.7,63.3,29.09,West,270,0.0,3.1,43,0.25,,,0.25,VWS V14.01,2013-07-18 19:46:00,
2013-07-18 15:47:00,89.1,64.3,29.06,West,270,0.0,0.9,44,0.25,,,0.25,VWS V14.01,2013-07-18 19:47:00,
2013-07-18 15:48:00,89.1,64.3,29.06,West,270,0.0,1.1,44,0.25,,,0.25,VWS V14.01,2013-07-18 19:48:00,
2013-07-18 15:49:00,89.2,63.8,29.06,West,270,0.0,0.0,43,0.25,,,0.25,VWS V14.01,2013-07-18 19:49:00,
2013-07-18 15:50:00,88.3,62.4,29.09,WSW,248,2.0,2.0,42,0.25,,,0.25,VWS V14.01,2013-07-18 19:50:00,
2013-07-18 15:51:00,89.2,63.8,29.06,West,270,2.5,2.5,43,0.25,,,0.25,VWS V14.01,2013-07-18 19:51:00,
2013-07-18 15:52:00,88.7,62.0,29.06,SSW,202,1.1,3.4,41,0.25,,,0.25,VWS V14.01,2013-07-18 19:52:00,
2013-07-18 15:54:00,88.7,62.7,29.06,SW,225,5.6,5.6,42,0.25,,,0.25,VWS V14.01,2013-07-18 19:54:00,
2013-07-18 15:55:00,89.2,63.8,29.06,West,270,2.5,2.9,43,0.25,,,0.25,VWS V14.01,2013-07-18 19:55:00,
2013-07-18 15:56:00,86.7,60.2,29.06,West,270,6.5,6.5,41,0.25,,,0.25,VWS V14.01,2013-07-18 19:56:00,
2013-07-18 15:57:00,86.7,60.2,29.06,WSW,248,4.3,6.5,41,0.25,,,0.25,VWS V14.01,2013-07-18 19:57:00,
2013-07-18 15:58:00,86.7,60.2,29.06,West,270,4.9,5.6,41,0.25,,,0.25,VWS V14.01,2013-07-18 19:58:00,
2013-07-18 15:59:00,85.8,61.4,29.06,West,270,2.7,5.4,44,0.25,,,0.25,VWS V14.01,2013-07-18 19:59:00,
2013-07-18 16:00:00,86.7,60.2,29.06,West,270,4.0,4.0,41,0.25,,,0.25,VWS V14.01,2013-07-18 20:00:00,
2013-07-18 16:01:00,86.0,62.8,29.06,SSW,202,2.9,3.1,46,0.25,,,0.25,VWS V14.01,2013-07-18 20:01:00,
2013-07-18 16:02:00,86.0,62.8,29.09,WSW,248,3.8,3.8,46,0.25,,,0.25,VWS V14.01,2013-07-18 20:02:00,
2013-07-18 16:03:00,84.9,61.2,29.09,WSW,248,3.6,4.3,45,0.25,,,0.25,VWS V14.01,2013-07-18 20:03:00,
2013-07-18 16:04:00,85.3,62.2,29.09,WSW,248,2.0,3.8,46,0.25,,,0.25,VWS V14.01,2013-07-18 20:04:00,
2013-07-18 16:05:00,85.6,62.5,29.09,NW,315,5.4,5.4,46,0.25,,,0.25,VWS V14.01,2013-07-18 20:05:00,
2013-07-18 16:06:00,86.4,63.2,29.06,West,270,2.5,3.1,46,0.25,,,0.25,VWS V14.01,2013-07-18 20:06:00,
2013-07-18 16:07:00,85.1,62.0,29.09,WSW,248,4.3,4.7,46,0.25,,,0.25,VWS V14.01,2013-07-18 20:07:00,
2013-07-18 16:08:00,85.5,63.0,29.09,West,270,4.9,4.9,47,0.25,,,0.25,VWS V14.01,2013-07-18 20:08:00,
2013-07-18 16:09:00,85.6,63.1,29.09,WSW,248,1.3,5.6,47,0.25,,,0.25,VWS V14.01,2013-07-18 20:09:00,
2013-07-18 16:10:00,84.9,61.8,29.09,West,270,5.6,7.6,46,0.25,,,0.25,VWS V14.01,2013-07-18 20:10:00,
2013-07-18 16:11:00,85.6,62.5,29.09,WSW,248,6.0,6.0,46,0.25,,,0.25,VWS V14.01,2013-07-18 20:11:00,
2013-07-18 16:12:00,85.3,62.8,29.09,WSW,248,4.7,4.7,47,0.25,,,0.25,VWS V14.01,2013-07-18 20:12:00,
2013-07-18 16:13:00,85.3,62.8,29.09,WSW,248,3.6,6.5,47,0.25,,,0.25,VWS V14.01,2013-07-18 20:13:00,
2013-07-18 16:14:00,85.3,63.4,29.09,West,270,2.9,5.6,48,0.25,,,0.25,VWS V14.01,2013-07-18 20:14:00,
2013-07-18 16:15:00,86.0,64.0,29.09,WNW,292,1.3,2.9,48,0.25,,,0.25,VWS V14.01,2013-07-18 20:15:00,
2013-07-18 16:16:00,84.9,61.8,29.09,WSW,248,4.5,5.6,46,0.25,,,0.25,VWS V14.01,2013-07-18 20:16:00,
2013-07-18 16:17:00,86.5,65.1,29.09,West,270,5.6,5.6,49,0.25,,,0.25,VWS V14.01,2013-07-18 20:17:00,
2013-07-18 16:18:00,86.5,65.1,29.09,WSW,248,6.0,6.5,49,0.25,,,0.25,VWS V14.01,2013-07-18 20:18:00,
2013-07-18 16:19:00,86.5,65.1,29.09,West,270,3.6,6.0,49,0.25,,,0.25,VWS V14.01,2013-07-18 20:19:00,
2013-07-18 16:20:00,86.5,65.1,29.09,WSW,248,3.1,3.6,49,0.25,,,0.25,VWS V14.01,2013-07-18 20:20:00,
2013-07-18 16:21:00,86.0,64.0,29.09,WSW,248,3.4,3.4,48,0.25,,,0.25,VWS V14.01,2013-07-18 20:21:00,
2013-07-18 16:22:00,86.5,65.1,29.09,WSW,248,2.9,3.4,49,0.25,,,0.25,VWS V14.01,2013-07-18 20:22:00,
2013-07-18 16:23:00,87.8,65.7,29.09,SW,225,2.7,2.9,48,0.25,,,0.25,VWS V14.01,2013-07-18 20:23:00,
2013-07-18 16:24:00,87.6,66.1,29.09,West,270,2.7,3.8,49,0.25,,,0.25,VWS V14.01,2013-07-18 20:24:00,
2013-07-18 16:25:00,87.4,66.5,29.09,SW,225,3.4,3.4,50,0.25,,,0.25,VWS V14.01,2013-07-18 20:25:00,
2013-07-18 16:26:00,86.5,65.1,29.09,West,270,5.6,5.6,49,0.25,,,0.25,VWS V14.01,2013-07-18 20:26:00,
2013-07-18 16:27:00,87.3,65.8,29.09,WSW,248,1.6,3.4,49,0.25,,,0.25,VWS V14.01,2013-07-18 20:27:00,
2013-07-18 16:28:00,87.3,65.8,29.09,SW,225,2.7,2.7,49,0.25,,,0.25,VWS V14.01,2013-07-18 20:28:00,
2013-07-18 16:29:00,86.7,64.7,29.09,SW,225,3.1,4.7,48,0.25,,,0.25,VWS V14.01,2013-07-18 20:29:00,
2013-07-18 16:30:00,86.5,64.5,29.09,WSW,248,1.3,5.4,48,0.25,,,0.25,VWS V14.01,2013-07-18 20:30:00,
2013-07-18 16:31:00,87.4,66.5,29.09,SW,225,3.4,5.6,50,0.25,,,0.25,VWS V14.01,2013-07-18 20:31:00,
2013-07-18 16:32:00,86.4,65.0,29.06,SSW,202,3.6,3.6,49,0.00,,,0.25,VWS V14.01,2013-07-18 20:32:00,
2013-07-18 16:33:00,86.4,65.0,29.06,WSW,248,6.5,6.5,49,0.00,,,0.25,VWS V14.01,2013-07-18 20:33:00,
2013-07-18 16:34:00,86.4,65.0,29.06,WSW,248,3.6,6.5,49,0.00,,,0.25,VWS V14.01,2013-07-18 20:34:00,
2013-07-18 16:35:00,86.4,65.0,29.06,SW,225,5.6,5.6,49,0.00,,,0.25,VWS V14.01,2013-07-18 20:35:00,
2013-07-18 16:36:00,86.4,65.0,29.09,WSW,248,1.3,1.3,49,0.00,,,0.25,VWS V14.01,2013-07-18 20:36:00,
2013-07-18 16:37:00,86.4,65.0,29.06,WSW,248,3.8,7.8,49,0.00,,,0.25,VWS V14.01,2013-07-18 20:37:00,
2013-07-18 16:38:00,84.6,64.5,29.06,WSW,248,3.8,3.8,51,0.00,,,0.25,VWS V14.01,2013-07-18 20:38:00,
2013-07-18 16:39:00,84.4,65.4,29.06,WSW,248,6.3,6.3,53,0.00,,,0.25,VWS V14.01,2013-07-18 20:39:00,
2013-07-18 16:40:00,84.4,65.4,29.06,WNW,292,4.9,6.3,53,0.00,,,0.25,VWS V14.01,2013-07-18 20:40:00,
2013-07-18 16:41:00,86.4,65.0,29.06,SW,225,5.6,5.6,49,0.00,,,0.25,VWS V14.01,2013-07-18 20:41:00,
2013-07-18 16:42:00,84.0,65.6,29.06,SSW,202,6.3,6.3,54,0.00,,,0.25,VWS V14.01,2013-07-18 20:42:00,
2013-07-18 16:43:00,83.8,64.9,29.06,South,180,6.5,6.5,53,0.00,,,0.25,VWS V14.01,2013-07-18 20:43:00,
2013-07-18 16:44:00,83.8,64.3,29.06,SSW,202,4.3,6.5,52,0.00,,,0.25,VWS V14.01,2013-07-18 20:44:00,
2013-07-18 16:45:00,83.8,64.9,29.06,SSW,202,2.7,4.3,53,0.00,,,0.25,VWS V14.01,2013-07-18 20:45:00,
2013-07-18 16:46:00,84.4,65.4,29.06,WNW,292,4.9,6.3,53,0.00,,,0.25,VWS V14.01,2013-07-18 20:46:00,
2013-07-18 16:47:00,83.8,66.0,29.03,SSW,202,3.8,5.6,55,0.00,,,0.25,VWS V14.01,2013-07-18 20:47:00,
2013-07-18 16:48:00,83.8,66.0,29.03,SW,225,3.6,3.8,55,0.00,,,0.25,VWS V14.01,2013-07-18 20:48:00,
2013-07-18 16:49:00,83.8,66.0,29.03,SSW,202,3.8,4.3,55,0.00,,,0.25,VWS V14.01,2013-07-18 20:49:00,
2013-07-18 16:50:00,83.7,65.8,29.03,SW,225,5.6,5.6,55,0.00,,,0.25,VWS V14.01,2013-07-18 20:50:00,
2013-07-18 16:51:00,83.8,64.9,29.06,SSW,202,2.7,4.3,53,0.00,,,0.25,VWS V14.01,2013-07-18 20:51:00,
2013-07-18 16:52:00,83.7,66.3,29.03,SW,225,3.8,5.4,56,0.00,,,0.25,VWS V14.01,2013-07-18 20:52:00,
2013-07-18 16:53:00,83.5,66.2,29.03,WSW,248,3.6,4.3,56,0.00,,,0.25,VWS V14.01,2013-07-18 20:53:00,
2013-07-18 16:54:00,83.5,66.2,29.03,SSW,202,4.9,4.9,56,0.00,,,0.25,VWS V14.01,2013-07-18 20:54:00,
2013-07-18 16:55:00,83.5,66.2,29.03,WNW,292,2.7,4.9,56,0.00,,,0.25,VWS V14.01,2013-07-18 20:55:00,
2013-07-18 16:56:00,83.7,65.8,29.03,WSW,248,2.9,5.6,55,0.00,,,0.25,VWS V14.01,2013-07-18 20:56:00,
2013-07-18 16:57:00,83.3,66.5,29.03,SW,225,5.6,5.6,57,0.00,,,0.25,VWS V14.01,2013-07-18 20:57:00,
2013-07-18 16:58:00,83.3,66.5,29.03,SW,225,2.0,5.6,57,0.00,,,0.25,VWS V14.01,2013-07-18 20:58:00,
2013-07-18 16:59:00,83.3,66.5,29.03,SSE,158,2.2,2.7,57,0.00,,,0.25,VWS V14.01,2013-07-18 20:59:00,
2013-07-18 17:00:00,83.5,66.7,29.03,SW,225,4.3,4.3,57,0.00,,,0.25,VWS V14.01,2013-07-18 21:00:00,
2013-07-18 17:01:00,83.5,66.2,29.03,WNW,292,2.7,4.9,56,0.00,,,0.25,VWS V14.01,2013-07-18 21:01:00,
2013-07-18 17:02:00,83.3,67.0,29.03,WNW,292,4.3,5.8,58,0.00,,,0.25,VWS V14.01,2013-07-18 21:02:00,
2013-07-18 17:03:00,83.3,67.0,29.03,WSW,248,4.3,5.6,58,0.00,,,0.25,VWS V14.01,2013-07-18 21:03:00,
2013-07-18 17:04:00,83.5,67.7,29.03,WSW,248,3.1,4.3,59,0.00,,,0.25,VWS V14.01,2013-07-18 21:04:00,
2013-07-18 17:05:00,83.5,67.7,29.03,WSW,248,2.9,3.1,59,0.00,,,0.25,VWS V14.01,2013-07-18 21:05:00,
2013-07-18 17:06:00,83.5,67.2,29.03,SW,225,3.6,4.3,58,0.00,,,0.25,VWS V14.01,2013-07-18 21:06:00,
2013-07-18 17:07:00,83.5,67.7,29.03,West,270,2.9,2.9,59,0.00,,,0.25,VWS V14.01,2013-07-18 21:07:00,
2013-07-18 17:08:00,83.5,67.7,29.03,SW,225,2.5,2.9,59,0.00,,,0.25,VWS V14.01,2013-07-18 21:08:00,
2013-07-18 17:09:00,83.7,67.8,29.03,SW,225,2.5,2.7,59,0.00,,,0.25,VWS V14.01,2013-07-18 21:09:00,
2013-07-18 17:10:00,83.7,67.8,29.03,SSW,202,2.7,2.7,59,0.00,,,0.25,VWS V14.01,2013-07-18 21:10:00,
2013-07-18 17:11:00,83.3,67.5,29.03,WSW,248,3.4,3.8,59,0.00,,,0.25,VWS V14.01,2013-07-18 21:11:00,
2013-07-18 17:12:00,83.7,67.8,29.03,WSW,248,3.6,4.0,59,0.00,,,0.25,VWS V14.01,2013-07-18 21:12:00,
2013-07-18 17:13:00,83.7,67.8,29.03,SSW,202,4.0,4.7,59,0.00,,,0.25,VWS V14.01,2013-07-18 21:13:00,
2013-07-18 17:14:00,83.7,67.8,29.03,West,270,2.2,4.0,59,0.00,,,0.25,VWS V14.01,2013-07-18 21:14:00,
2013-07-18 17:15:00,83.7,67.8,29.03,South,180,2.0,2.9,59,0.00,,,0.25,VWS V14.01,2013-07-18 21:15:00,
2013-07-18 17:16:00,83.7,67.8,29.03,SW,225,0.9,2.7,59,0.00,,,0.25,VWS V14.01,2013-07-18 21:16:00,
2013-07-18 17:17:00,84.0,69.1,29.00,West,270,2.0,2.0,61,0.00,,,0.25,VWS V14.01,2013-07-18 21:17:00,
2013-07-18 17:18:00,83.8,68.5,29.00,West,270,2.7,2.9,60,0.00,,,0.25,VWS V14.01,2013-07-18 21:18:00,
2013-07-18 17:19:00,83.8,68.5,29.00,WSW,248,3.1,5.6,60,0.00,,,0.25,VWS V14.01,2013-07-18 21:19:00,
2013-07-18 17:20:00,83.8,68.5,29.00,SSW,202,5.6,5.6,60,0.00,,,0.25,VWS V14.01,2013-07-18 21:20:00,
2013-07-18 17:21:00,83.8,68.5,29.03,WNW,292,2.7,2.7,60,0.00,,,0.25,VWS V14.01,2013-07-18 21:21:00,
2013-07-18 17:22:00,84.4,68.5,29.00,SW,225,2.7,2.7,59,0.00,,,0.25,VWS V14.01,2013-07-18 21:22:00,
2013-07-18 17:23:00,84.4,68.5,29.00,SSW,202,3.4,3.4,59,0.00,,,0.25,VWS V14.01,2013-07-18 21:23:00,
2013-07-18 17:24:00,84.6,68.7,29.00,NW,315,2.7,3.4,59,0.00,,,0.25,VWS V14.01,2013-07-18 21:24:00,
2013-07-18 17:25:00,84.6,68.7,29.00,SW,225,1.3,2.7,59,0.00,,,0.25,VWS V14.01,2013-07-18 21:25:00,
2013-07-18 17:26:00,83.8,68.5,29.00,SW,225,2.7,5.6,60,0.00,,,0.25,VWS V14.01,2013-07-18 21:26:00,
2013-07-18 17:27:00,84.9,69.0,29.00,WSW,248,4.0,4.0,59,0.00,,,0.25,VWS V14.01,2013-07-18 21:27:00,
2013-07-18 17:28:00,84.9,69.0,29.00,SW,225,2.9,4.0,59,0.00,,,0.25,VWS V14.01,2013-07-18 21:28:00,
2013-07-18 17:29:00,84.9,69.0,29.00,WSW,248,3.1,4.3,59,0.00,,,0.25,VWS V14.01,2013-07-18 21:29:00,
2013-07-18 17:30:00,85.3,68.3,29.00,SE,135,0.9,3.4,57,0.00,,,0.25,VWS V14.01,2013-07-18 21:30:00,
2013-07-18 17:31:00,84.9,69.0,29.00,WSW,248,4.7,4.7,59,0.00,,,0.25,VWS V14.01,2013-07-18 21:31:00,
2013-07-18 17:32:00,85.5,67.5,29.03,WSW,248,2.7,4.7,55,0.00,,,0.25,VWS V14.01,2013-07-18 21:32:00,
2013-07-18 17:33:00,85.6,67.1,29.03,WSW,248,5.6,5.6,54,0.00,,,0.25,VWS V14.01,2013-07-18 21:33:00,
2013-07-18 17:35:00,85.6,67.1,29.03,WSW,248,2.7,6.0,54,0.00,,,0.25,VWS V14.01,2013-07-18 21:35:00,
2013-07-18 17:36:00,85.3,68.3,29.00,WSW,248,3.6,3.6,57,0.00,,,0.25,VWS V14.01,2013-07-18 21:36:00,
2013-07-18 17:37:00,85.6,67.1,29.03,SW,225,3.1,3.1,54,0.00,,,0.25,VWS V14.01,2013-07-18 21:37:00,
2013-07-18 17:38:00,86.7,66.4,29.03,SW,225,1.3,5.4,51,0.00,,,0.25,VWS V14.01,2013-07-18 21:38:00,
2013-07-18 17:39:00,87.4,67.1,29.03,SE,135,3.1,5.4,51,0.00,,,0.25,VWS V14.01,2013-07-18 21:39:00,
2013-07-18 17:40:00,87.6,66.1,29.03,SW,225,5.4,7.4,49,0.00,,,0.25,VWS V14.01,2013-07-18 21:40:00,
2013-07-18 17:41:00,85.6,67.1,29.03,SW,225,3.1,5.6,54,0.00,,,0.25,VWS V14.01,2013-07-18 21:41:00,
2013-07-18 17:42:00,87.8,65.7,29.03,WSW,248,6.0,6.3,48,0.00,,,0.25,VWS V14.01,2013-07-18 21:42:00,
2013-07-18 17:43:00,87.8,65.7,29.03,WSW,248,6.0,6.0,48,0.00,,,0.25,VWS V14.01,2013-07-18 21:43:00,
2013-07-18 17:44:00,87.8,65.7,29.03,SSW,202,3.6,6.3,48,0.00,,,0.25,VWS V14.01,2013-07-18 21:44:00,
2013-07-18 17:45:00,88.5,65.1,29.03,SSW,202,8.7,10.5,46,0.00,,,0.25,VWS V14.01,2013-07-18 21:45:00,
2013-07-18 17:46:00,87.8,65.7,29.03,WSW,248,5.6,6.5,48,0.00,,,0.25,VWS V14.01,2013-07-18 21:46:00,
2013-07-18 17:47:00,88.0,64.0,29.03,SSW,202,6.0,6.3,45,0.00,,,0.25,VWS V14.01,2013-07-18 21:47:00,
2013-07-18 17:48:00,88.0,64.6,29.03,West,270,3.4,6.0,46,0.00,,,0.25,VWS V14.01,2013-07-18 21:48:00,
2013-07-18 17:49:00,88.0,64.6,29.03,SW,225,3.6,4.0,46,0.00,,,0.25,VWS V14.01,2013-07-18 21:49:00,
2013-07-18 17:50:00,87.8,63.8,29.03,West,270,3.8,6.0,45,0.00,,,0.25,VWS V14.01,2013-07-18 21:50:00,
2013-07-18 17:51:00,88.2,63.5,29.03,WSW,248,4.0,8.7,44,0.00,,,0.25,VWS V14.01,2013-07-18 21:51:00,
2013-07-18 17:52:00,88.2,64.2,29.03,West,270,4.9,5.6,45,0.00,,,0.25,VWS V14.01,2013-07-18 21:52:00,
2013-07-18 17:53:00,88.2,64.2,29.03,West,270,4.9,4.9,45,0.00,,,0.25,VWS V14.01,2013-07-18 21:53:00,
2013-07-18 17:54:00,88.2,64.2,29.03,SW,225,6.0,6.5,45,0.00,,,0.25,VWS V14.01,2013-07-18 21:54:00,
2013-07-18 17:55:00,88.2,64.2,29.03,WSW,248,7.4,9.2,45,0.00,,,0.25,VWS V14.01,2013-07-18 21:55:00,
2013-07-18 17:56:00,88.2,64.2,29.03,SW,225,8.7,8.7,45,0.00,,,0.25,VWS V14.01,2013-07-18 21:56:00,
2013-07-18 17:57:00,89.2,64.5,29.03,WNW,292,3.1,3.6,44,0.00,,,0.25,VWS V14.01,2013-07-18 21:57:00,
2013-07-18 17:58:00,89.1,64.3,29.03,WSW,248,3.6,4.3,44,0.00,,,0.25,VWS V14.01,2013-07-18 21:58:00,
2013-07-18 17:59:00,89.1,64.3,29.03,West,270,8.7,8.7,44,0.00,,,0.25,VWS V14.01,2013-07-18 21:59:00,
2013-07-18 18:00:00,88.7,62.7,29.03,SW,225,5.4,8.7,42,0.00,,,0.25,VWS V14.01,2013-07-18 22:00:00,
2013-07-18 18:01:00,89.2,64.5,29.03,WSW,248,3.6,7.4,44,0.00,,,0.25,VWS V14.01,2013-07-18 22:01:00,
2013-07-18 18:02:00,88.2,63.5,29.03,WNW,292,2.7,7.4,44,0.00,,,0.25,VWS V14.01,2013-07-18 22:02:00,
2013-07-18 18:03:00,88.2,63.5,29.03,WSW,248,4.9,4.9,44,0.00,,,0.25,VWS V14.01,2013-07-18 22:03:00,
2013-07-18 18:04:00,87.3,63.3,29.03,SSW,202,5.8,6.3,45,0.00,,,0.25,VWS V14.01,2013-07-18 22:04:00,
2013-07-18 18:05:00,87.3,63.3,29.03,SW,225,4.9,5.8,45,0.00,,,0.25,VWS V14.01,2013-07-18 22:05:00,
2013-07-18 18:06:00,88.5,63.2,29.03,West,270,3.4,5.4,43,0.00,,,0.25,VWS V14.01,2013-07-18 22:06:00,
2013-07-18 18:07:00,86.9,62.4,29.03,WNW,292,3.6,8.5,44,0.00,,,0.25,VWS V14.01,2013-07-18 22:07:00,
2013-07-18 18:08:00,86.9,62.4,29.03,WSW,248,7.8,7.8,44,0.00,,,0.25,VWS V14.01,2013-07-18 22:08:00,
2013-07-18 18:09:00,86.5,62.7,29.03,West,270,6.3,7.8,45,0.00,,,0.25,VWS V14.01,2013-07-18 22:09:00,
2013-07-18 18:10:00,86.4,61.9,29.03,WSW,248,7.8,7.8,44,0.00,,,0.25,VWS V14.01,2013-07-18 22:10:00,
2013-07-18 18:11:00,87.1,63.2,29.03,West,270,8.5,8.5,45,0.00,,,0.25,VWS V14.01,2013-07-18 22:11:00,
2013-07-18 18:12:00,86.4,61.9,29.03,SW,225,7.2,7.2,44,0.00,,,0.25,VWS V14.01,2013-07-18 22:12:00,
2013-07-18 18:13:00,86.5,62.7,29.03,WSW,248,5.8,7.2,45,0.00,,,0.25,VWS V14.01,2013-07-18 22:13:00,
2013-07-18 18:14:00,86.9,63.0,29.03,SW,225,8.7,8.7,45,0.00,,,0.25,VWS V14.01,2013-07-18 22:14:00,
2013-07-18 18:15:00,87.1,63.2,29.03,WNW,292,6.0,8.7,45,0.00,,,0.25,VWS V14.01,2013-07-18 22:15:00,
2013-07-18 18:16:00,86.4,61.9,29.03,SW,225,6.5,8.7,44,0.00,,,0.25,VWS V14.01,2013-07-18 22:16:00,
2013-07-18 18:17:00,88.0,62.7,29.03,SSW,202,4.0,9.6,43,0.00,,,0.25,VWS V14.01,2013-07-18 22:17:00,
2013-07-18 18:18:00,88.0,62.7,29.03,WSW,248,3.8,6.5,43,0.00,,,0.25,VWS V14.01,2013-07-18 22:18:00,
2013-07-18 18:19:00,88.3,62.4,29.03,West,270,6.5,10.1,42,0.00,,,0.25,VWS V14.01,2013-07-18 22:19:00,
2013-07-18 18:21:00,87.4,62.9,29.03,SW,225,3.1,6.3,44,0.00,,,0.25,VWS V14.01,2013-07-18 22:21:00,
2013-07-18 18:22:00,88.3,62.4,29.03,WNW,292,8.1,8.1,42,0.00,,,0.25,VWS V14.01,2013-07-18 22:22:00,
2013-07-18 18:23:00,88.7,61.3,29.03,SW,225,5.6,8.5,40,0.00,,,0.25,VWS V14.01,2013-07-18 22:23:00,
2013-07-18 18:24:00,88.7,61.3,29.03,SW,225,6.5,8.1,40,0.00,,,0.25,VWS V14.01,2013-07-18 22:24:00,
2013-07-18 18:25:00,88.0,61.3,29.03,West,270,8.7,8.7,41,0.00,,,0.25,VWS V14.01,2013-07-18 22:25:00,
2013-07-18 18:26:00,87.6,61.0,29.03,WSW,248,7.8,8.7,41,0.00,,,0.25,VWS V14.01,2013-07-18 22:26:00,
2013-07-18 18:27:00,88.3,62.4,29.03,West,270,6.5,6.5,42,0.00,,,0.25,VWS V14.01,2013-07-18 22:27:00,
2013-07-18 18:28:00,87.3,60.7,29.03,SW,225,8.1,8.1,41,0.00,,,0.25,VWS V14.01,2013-07-18 22:28:00,
2013-07-18 18:29:00,87.3,60.7,29.03,SW,225,8.1,8.1,41,0.00,,,0.25,VWS V14.01,2013-07-18 22:29:00,
2013-07-18 18:30:00,87.1,60.5,29.03,WSW,248,5.6,8.1,41,0.00,,,0.25,VWS V14.01,2013-07-18 22:30:00,
2013-07-18 18:31:00,87.1,60.5,29.03,SW,225,9.8,10.1,41,0.00,,,0.25,VWS V14.01,2013-07-18 22:31:00,
2013-07-18 18:32:00,87.6,61.0,29.03,West,270,7.8,7.8,41,0.00,,,0.25,VWS V14.01,2013-07-18 22:32:00,
2013-07-18 18:33:00,87.8,61.2,29.00,West,270,6.5,6.5,41,0.00,,,0.25,VWS V14.01,2013-07-18 22:33:00,
2013-07-18 18:34:00,88.0,61.3,29.00,WSW,248,5.4,8.5,41,0.00,,,0.25,VWS V14.01,2013-07-18 22:34:00,
2013-07-18 18:35:00,87.8,60.5,29.00,WSW,248,7.6,11.0,40,0.00,,,0.25,VWS V14.01,2013-07-18 22:35:00,
2013-07-18 18:36:00,87.8,60.5,29.00,WSW,248,5.4,7.6,40,0.00,,,0.25,VWS V14.01,2013-07-18 22:36:00,
2013-07-18 18:37:00,87.1,60.5,29.00,WSW,248,10.3,10.3,41,0.00,,,0.25,VWS V14.01,2013-07-18 22:37:00,
2013-07-18 18:38:00,87.8,60.5,29.00,WSW,248,6.3,7.8,40,0.00,,,0.25,VWS V14.01,2013-07-18 22:38:00,
2013-07-18 18:39:00,88.2,61.5,29.00,SW,225,5.8,6.5,41,0.00,,,0.25,VWS V14.01,2013-07-18 22:39:00,
2013-07-18 18:40:00,88.3,61.7,29.00,West,270,6.3,8.1,41,0.00,,,0.25,VWS V14.01,2013-07-18 22:40:00,
2013-07-18 18:41:00,88.5,61.1,29.00,WSW,248,5.4,7.8,40,0.00,,,0.25,VWS V14.01,2013-07-18 22:41:00,
2013-07-18 18:42:00,87.8,60.5,29.00,West,270,4.9,5.4,40,0.00,,,0.25,VWS V14.01,2013-07-18 22:42:00,
2013-07-18 18:43:00,88.7,61.3,29.00,WSW,248,6.3,6.5,40,0.00,,,0.25,VWS V14.01,2013-07-18 22:43:00,
2013-07-18 18:44:00,88.7,61.3,29.00,WSW,248,7.4,7.4,40,0.00,,,0.25,VWS V14.01,2013-07-18 22:44:00,
2013-07-18 18:45:00,88.7,61.3,29.00,SW,225,6.3,7.4,40,0.00,,,0.25,VWS V14.01,2013-07-18 22:45:00,
2013-07-18 18:46:00,88.7,61.3,29.00,SW,225,6.3,6.3,40,0.00,,,0.25,VWS V14.01,2013-07-18 22:46:00,
2013-07-18 18:47:00,88.5,61.1,29.00,SSW,202,3.8,5.4,40,0.00,,,0.25,VWS V14.01,2013-07-18 22:47:00,
2013-07-18 18:48:00,88.9,60.0,29.00,WSW,248,6.5,6.5,38,0.00,,,0.25,VWS V14.01,2013-07-18 22:48:00,
2013-07-18 18:49:00,88.9,60.8,29.00,WNW,292,7.6,7.6,39,0.00,,,0.25,VWS V14.01,2013-07-18 22:49:00,
2013-07-18 18:50:00,88.9,60.8,29.00,WSW,248,6.3,7.6,39,0.00,,,0.25,VWS V14.01,2013-07-18 22:50:00,
2013-07-18 18:51:00,88.7,59.9,29.00,WSW,248,7.8,10.7,38,0.00,,,0.25,VWS V14.01,2013-07-18 22:51:00,
2013-07-18 18:52:00,88.7,61.3,29.00,WSW,248,8.7,8.7,40,0.00,,,0.25,VWS V14.01,2013-07-18 22:52:00,
2013-07-18 18:53:00,88.7,60.6,29.00,West,270,4.0,6.5,39,0.00,,,0.25,VWS V14.01,2013-07-18 22:53:00,
2013-07-18 18:54:00,88.7,60.6,29.00,WSW,248,8.5,8.5,39,0.00,,,0.25,VWS V14.01,2013-07-18 22:54:00,
2013-07-18 18:55:00,88.5,59.7,29.00,SW,225,6.5,10.3,38,0.00,,,0.25,VWS V14.01,2013-07-18 22:55:00,
2013-07-18 18:56:00,88.5,59.7,29.00,WSW,248,5.8,10.7,38,0.00,,,0.25,VWS V14.01,2013-07-18 22:56:00,
2013-07-18 18:57:00,88.7,60.6,29.00,WSW,248,7.2,10.3,39,0.00,,,0.25,VWS V14.01,2013-07-18 22:57:00,
2013-07-18 18:58:00,88.5,59.7,29.00,West,270,7.6,12.1,38,0.00,,,0.25,VWS V14.01,2013-07-18 22:58:00,
2013-07-18 18:59:00,88.5,59.7,29.00,West,270,7.6,7.6,38,0.00,,,0.25,VWS V14.01,2013-07-18 22:59:00,
2013-07-18 19:00:00,88.5,59.7,29.00,WSW,248,6.3,7.6,38,0.00,,,0.25,VWS V14.01,2013-07-18 23:00:00,
2013-07-18 19:01:00,88.5,59.7,29.00,West,270,8.7,10.3,38,0.00,,,0.25,VWS V14.01,2013-07-18 23:01:00,
2013-07-18 19:02:00,88.5,59.7,29.00,WSW,248,7.8,7.8,38,0.00,,,0.25,VWS V14.01,2013-07-18 23:02:00,
2013-07-18 19:03:00,88.5,60.4,28.97,WSW,248,8.5,9.6,39,0.00,,,0.25,VWS V14.01,2013-07-18 23:03:00,
2013-07-18 19:04:00,88.5,59.7,28.97,West,270,6.0,8.5,38,0.00,,,0.25,VWS V14.01,2013-07-18 23:04:00,
2013-07-18 19:05:00,88.5,59.7,28.97,WSW,248,4.0,11.2,38,0.00,,,0.25,VWS V14.01,2013-07-18 23:05:00,
2013-07-18 19:06:00,88.5,59.7,28.97,WSW,248,4.0,4.0,38,0.00,,,0.25,VWS V14.01,2013-07-18 23:06:00,
2013-07-18 19:07:00,88.5,59.7,28.97,SW,225,7.8,9.8,38,0.00,,,0.25,VWS V14.01,2013-07-18 23:07:00,
2013-07-18 19:08:00,88.5,59.7,28.97,SSW,202,12.3,12.3,38,0.00,,,0.25,VWS V14.01,2013-07-18 23:08:00,
2013-07-18 19:09:00,88.5,59.0,28.97,WSW,248,6.0,12.3,37,0.00,,,0.25,VWS V14.01,2013-07-18 23:09:00,
2013-07-18 19:10:00,88.3,59.5,28.97,WSW,248,5.8,12.1,38,0.00,,,0.25,VWS V14.01,2013-07-18 23:10:00,
2013-07-18 19:11:00,88.3,59.5,28.97,WSW,248,8.7,8.7,38,0.00,,,0.25,VWS V14.01,2013-07-18 23:11:00,
2013-07-18 19:12:00,88.5,59.7,28.97,WSW,248,5.4,5.4,38,0.00,,,0.25,VWS V14.01,2013-07-18 23:12:00,
2013-07-18 19:13:00,88.0,59.2,28.97,SW,225,12.1,17.9,38,0.00,,,0.25,VWS V14.01,2013-07-18 23:13:00,
2013-07-18 19:14:00,87.8,59.1,28.97,WSW,248,9.6,12.1,38,0.00,,,0.25,VWS V14.01,2013-07-18 23:14:00,
2013-07-18 19:15:00,87.6,58.9,28.97,West,270,12.3,12.3,38,0.00,,,0.25,VWS V14.01,2013-07-18 23:15:00,
2013-07-18 19:16:00,87.4,58.7,28.97,SW,225,10.7,15.9,38,0.00,,,0.25,VWS V14.01,2013-07-18 23:16:00,
2013-07-18 19:17:00,88.3,59.5,28.97,SSW,202,6.5,15.4,38,0.00,,,0.25,VWS V14.01,2013-07-18 23:17:00,
2013-07-18 19:18:00,87.1,58.4,28.97,WSW,248,6.3,10.5,38,0.00,,,0.25,VWS V14.01,2013-07-18 23:18:00,
2013-07-18 19:19:00,87.1,59.2,28.97,SW,225,5.4,7.8,39,0.00,,,0.25,VWS V14.01,2013-07-18 23:19:00,
2013-07-18 19:20:00,86.9,59.0,28.97,WSW,248,6.5,10.1,39,0.00,,,0.25,VWS V14.01,2013-07-18 23:20:00,
2013-07-18 19:21:00,86.7,58.8,28.97,SW,225,12.1,12.5,39,0.00,,,0.25,VWS V14.01,2013-07-18 23:21:00,
2013-07-18 19:22:00,87.3,58.6,28.97,WSW,248,8.7,22.2,38,0.00,,,0.25,VWS V14.01,2013-07-18 23:22:00,
2013-07-18 19:23:00,86.5,58.7,28.97,SSW,202,6.3,10.1,39,0.00,,,0.25,VWS V14.01,2013-07-18 23:23:00,
2013-07-18 19:24:00,86.4,58.5,28.97,WSW,248,8.5,9.8,39,0.00,,,0.25,VWS V14.01,2013-07-18 23:24:00,
2013-07-18 19:25:00,86.2,58.3,28.97,West,270,7.2,12.8,39,0.00,,,0.25,VWS V14.01,2013-07-18 23:25:00,
2013-07-18 19:26:00,86.2,58.3,28.97,SW,225,7.4,7.4,39,0.00,,,0.25,VWS V14.01,2013-07-18 23:26:00,
2013-07-18 19:27:00,86.7,58.8,28.97,WSW,248,6.5,12.1,39,0.00,,,0.25,VWS V14.01,2013-07-18 23:27:00,
2013-07-18 19:28:00,86.0,58.9,28.97,West,270,8.5,12.3,40,0.00,,,0.25,VWS V14.01,2013-07-18 23:28:00,
2013-07-18 19:29:00,85.8,58.7,28.97,SSW,202,10.5,10.5,40,0.00,,,0.25,VWS V14.01,2013-07-18 23:29:00,
2013-07-18 19:30:00,85.8,58.7,28.97,WSW,248,8.5,10.5,40,0.00,,,0.25,VWS V14.01,2013-07-18 23:30:00,
2013-07-18 19:31:00,85.8,58.7,28.97,SW,225,9.8,15.9,40,0.00,,,0.25,VWS V14.01,2013-07-18 23:31:00,
2013-07-18 19:32:00,86.0,58.2,28.97,South,180,7.4,8.7,39,0.00,,,0.25,VWS V14.01,2013-07-18 23:32:00,
2013-07-18 19:33:00,85.6,58.6,28.97,WSW,248,6.0,12.8,40,0.00,,,0.25,VWS V14.01,2013-07-18 23:33:00,
2013-07-18 19:35:00,85.6,58.6,28.97,SSE,158,7.8,12.3,40,0.00,,,0.25,VWS V14.01,2013-07-18 23:35:00,
2013-07-18 19:36:00,85.5,58.4,28.97,WSW,248,6.5,7.8,40,0.00,,,0.25,VWS V14.01,2013-07-18 23:36:00,
2013-07-18 19:37:00,85.8,58.7,28.97,SSW,202,8.5,9.8,40,0.00,,,0.25,VWS V14.01,2013-07-18 23:37:00,
2013-07-18 19:38:00,85.5,58.4,28.97,WSW,248,15.2,15.2,40,0.00,,,0.25,VWS V14.01,2013-07-18 23:38:00,
2013-07-18 19:39:00,85.5,58.4,28.97,West,270,4.0,15.2,40,0.00,,,0.25,VWS V14.01,2013-07-18 23:39:00,
2013-07-18 19:40:00,85.5,58.4,28.97,SSW,202,5.8,12.5,40,0.00,,,0.25,VWS V14.01,2013-07-18 23:40:00,
2013-07-18 19:41:00,85.5,58.4,28.97,SW,225,10.3,10.3,40,0.00,,,0.25,VWS V14.01,2013-07-18 23:41:00,
2013-07-18 19:42:00,85.5,58.4,28.97,WSW,248,8.5,8.5,40,0.00,,,0.25,VWS V14.01,2013-07-18 23:42:00,
2013-07-18 19:43:00,85.3,58.9,28.97,SW,225,9.8,9.8,41,0.00,,,0.25,VWS V14.01,2013-07-18 23:43:00,
2013-07-18 19:44:00,85.3,58.9,28.97,SW,225,8.5,12.3,41,0.00,,,0.25,VWS V14.01,2013-07-18 23:44:00,
2013-07-18 19:45:00,85.3,58.9,28.97,West,270,8.7,15.4,41,0.00,,,0.25,VWS V14.01,2013-07-18 23:45:00,
2013-07-18 19:46:00,85.3,58.9,28.97,West,270,12.8,12.8,41,0.00,,,0.25,VWS V14.01,2013-07-18 23:46:00,
2013-07-18 19:47:00,85.5,58.4,28.97,SW,225,5.4,12.3,40,0.00,,,0.25,VWS V14.01,2013-07-18 23:47:00,
2013-07-18 19:48:00,85.1,58.8,28.97,West,270,7.8,14.1,41,0.00,,,0.25,VWS V14.01,2013-07-18 23:48:00,
2013-07-18 19:49:00,85.1,58.8,28.97,WSW,248,13.0,16.3,41,0.00,,,0.25,VWS V14.01,2013-07-18 23:49:00,
2013-07-18 19:50:00,85.1,58.8,28.97,SSW,202,16.8,16.8,41,0.00,,,0.25,VWS V14.01,2013-07-18 23:50:00,
2013-07-18 19:51:00,85.1,58.8,28.97,SW,225,15.2,16.8,41,0.00,,,0.25,VWS V14.01,2013-07-18 23:51:00,
2013-07-18 19:52:00,85.3,58.9,28.97,WSW,248,11.9,13.4,41,0.00,,,0.25,VWS V14.01,2013-07-18 23:52:00,
2013-07-18 19:53:00,85.1,58.8,28.97,West,270,7.4,8.1,41,0.00,,,0.25,VWS V14.01,2013-07-18 23:53:00,
2013-07-18 19:54:00,85.1,58.8,28.97,SSW,202,5.8,10.5,41,0.00,,,0.25,VWS V14.01,2013-07-18 23:54:00,
2013-07-18 19:55:00,84.9,58.6,28.97,SW,225,7.8,7.8,41,0.00,,,0.25,VWS V14.01,2013-07-18 23:55:00,
2013-07-18 19:56:00,84.9,59.3,28.97,SW,225,12.8,12.8,42,0.00,,,0.25,VWS V14.01,2013-07-18 23:56:00,
2013-07-18 19:57:00,85.1,58.8,28.97,SSW,202,10.7,15.2,41,0.00,,,0.25,VWS V14.01,2013-07-18 23:57:00,
2013-07-18 19:58:00,84.9,58.6,28.97,SW,225,8.1,9.0,41,0.00,,,0.25,VWS V14.01,2013-07-18 23:58:00,
2013-07-18 19:59:00,84.9,58.6,28.97,WSW,248,7.8,12.3,41,0.00,,,0.25,VWS V14.01,2013-07-18 23:59:00,
2013-07-18 20:00:00,84.7,59.1,28.97,WSW,248,7.2,11.9,42,0.00,,,0.25,VWS V14.01,2013-07-19 00:00:00,
2013-07-18 20:01:00,84.7,59.1,28.97,SW,225,7.8,7.8,42,0.00,,,0.25,VWS V14.01,2013-07-19 00:01:00,
2013-07-18 20:02:00,84.9,59.3,28.97,WSW,248,9.0,12.8,42,0.00,,,0.25,VWS V14.01,2013-07-19 00:02:00,
2013-07-18 20:03:00,84.7,59.1,28.97,WSW,248,11.9,15.2,42,0.00,,,0.25,VWS V14.01,2013-07-19 00:03:00,
2013-07-18 20:04:00,84.7,59.1,28.97,SSW,202,11.0,16.1,42,0.00,,,0.25,VWS V14.01,2013-07-19 00:04:00,
2013-07-18 20:05:00,84.9,59.3,28.97,West,270,15.7,17.2,42,0.00,,,0.25,VWS V14.01,2013-07-19 00:05:00,
2013-07-18 20:06:00,84.9,59.3,28.97,SW,225,10.5,15.7,42,0.00,,,0.25,VWS V14.01,2013-07-19 00:06:00,
2013-07-18 20:07:00,84.7,59.1,28.97,SSW,202,7.6,12.1,42,0.00,,,0.25,VWS V14.01,2013-07-19 00:07:00,
2013-07-18 20:08:00,84.9,58.6,28.97,SW,225,4.0,15.2,41,0.00,,,0.25,VWS V14.01,2013-07-19 00:08:00,
2013-07-18 20:09:00,84.9,59.3,28.97,WSW,248,3.6,6.5,42,0.00,,,0.25,VWS V14.01,2013-07-19 00:09:00,
2013-07-18 20:10:00,84.9,59.3,28.97,West,270,8.7,13.2,42,0.00,,,0.25,VWS V14.01,2013-07-19 00:10:00,
2013-07-18 20:11:00,84.7,59.1,28.97,WSW,248,3.8,8.7,42,0.00,,,0.25,VWS V14.01,2013-07-19 00:11:00,
2013-07-18 20:12:00,84.9,59.3,28.97,SW,225,7.4,10.5,42,0.00,,,0.25,VWS V14.01,2013-07-19 00:12:00,
2013-07-18 20:13:00,84.7,59.1,28.97,WSW,248,12.3,12.3,42,0.00,,,0.25,VWS V14.01,2013-07-19 00:13:00,
2013-07-18 20:14:00,84.7,59.1,28.97,SW,225,6.3,12.3,42,0.00,,,0.25,VWS V14.01,2013-07-19 00:14:00,
2013-07-18 20:15:00,84.7,59.1,28.97,SSW,202,7.2,7.8,42,0.00,,,0.25,VWS V14.01,2013-07-19 00:15:00,
2013-07-18 20:16:00,84.7,59.1,28.97,WSW,248,8.7,8.7,42,0.00,,,0.25,VWS V14.01,2013-07-19 00:16:00,
2013-07-18 20:17:00,84.7,59.1,28.97,SW,225,6.5,8.5,42,0.00,,,0.25,VWS V14.01,2013-07-19 00:17:00,
2013-07-18 20:18:00,84.7,59.1,28.97,WSW,248,14.8,14.8,42,0.00,,,0.25,VWS V14.01,2013-07-19 00:18:00,
2013-07-18 20:19:00,84.9,59.3,28.97,SW,225,8.7,14.8,42,0.00,,,0.25,VWS V14.01,2013-07-19 00:19:00,
2013-07-18 20:20:00,84.9,59.3,28.97,West,270,8.5,12.1,42,0.00,,,0.25,VWS V14.01,2013-07-19 00:20:00,
2013-07-18 20:21:00,84.9,59.3,28.97,SW,225,4.0,8.5,42,0.00,,,0.25,VWS V14.01,2013-07-19 00:21:00,
2013-07-18 20:22:00,84.7,59.1,28.97,SW,225,6.3,9.4,42,0.00,,,0.25,VWS V14.01,2013-07-19 00:22:00,
2013-07-18 20:23:00,85.1,59.5,28.97,WSW,248,5.8,7.8,42,0.00,,,0.25,VWS V14.01,2013-07-19 00:23:00,
2013-07-18 20:24:00,85.1,59.5,28.97,SW,225,8.5,8.5,42,0.00,,,0.25,VWS V14.01,2013-07-19 00:24:00,
2013-07-18 20:25:00,85.1,59.5,28.97,SW,225,3.8,12.1,42,0.00,,,0.25,VWS V14.01,2013-07-19 00:25:00,
2013-07-18 20:26:00,85.1,59.5,28.97,South,180,9.8,10.3,42,0.00,,,0.25,VWS V14.01,2013-07-19 00:26:00,
2013-07-18 20:27:00,84.9,59.3,28.97,WSW,248,7.8,9.4,42,0.00,,,0.25,VWS V14.01,2013-07-19 00:27:00,
2013-07-18 20:28:00,85.3,59.6,28.97,SSW,202,5.8,6.5,42,0.00,,,0.25,VWS V14.01,2013-07-19 00:28:00,
2013-07-18 20:29:00,85.1,59.5,28.97,WSW,248,5.8,8.1,42,0.00,,,0.25,VWS V14.01,2013-07-19 00:29:00,
2013-07-18 20:30:00,85.1,59.5,28.97,South,180,5.6,9.6,42,0.00,,,0.25,VWS V14.01,2013-07-19 00:30:00,
2013-07-18 20:31:00,85.1,59.5,28.97,SSW,202,8.1,8.7,42,0.00,,,0.25,VWS V14.01,2013-07-19 00:31:00,
2013-07-18 20:32:00,85.1,59.5,28.97,SW,225,10.3,10.3,42,0.00,,,0.25,VWS V14.01,2013-07-19 00:32:00,
2013-07-18 20:33:00,85.1,59.5,28.97,WSW,248,5.8,8.1,42,0.00,,,0.25,VWS V14.01,2013-07-19 00:33:00,
2013-07-18 20:34:00,85.1,59.5,28.97,SSW,202,5.6,6.0,42,0.00,,,0.25,VWS V14.01,2013-07-19 00:34:00,
2013-07-18 20:35:00,85.1,59.5,28.97,SW,225,10.3,10.7,42,0.00,,,0.25,VWS V14.01,2013-07-19 00:35:00,
2013-07-18 20:36:00,85.1,59.5,28.97,West,270,5.4,10.3,42,0.00,,,0.25,VWS V14.01,2013-07-19 00:36:00,
2013-07-18 20:37:00,85.1,59.5,28.97,West,270,7.6,7.6,42,0.00,,,0.25,VWS V14.01,2013-07-19 00:37:00,
2013-07-18 20:38:00,84.9,60.0,28.97,SSW,202,10.1,10.3,43,0.00,,,0.25,VWS V14.01,2013-07-19 00:38:00,
2013-07-18 20:39:00,84.9,59.3,28.97,WSW,248,6.9,10.7,42,0.00,,,0.25,VWS V14.01,2013-07-19 00:39:00,
2013-07-18 20:40:00,84.9,59.3,28.97,WSW,248,13.9,13.9,42,0.00,,,0.25,VWS V14.01,2013-07-19 00:40:00,
2013-07-18 20:41:00,84.9,59.3,28.97,WSW,248,6.0,13.9,42,0.00,,,0.25,VWS V14.01,2013-07-19 00:41:00,
2013-07-18 20:42:00,84.9,60.0,28.97,WSW,248,8.1,8.1,43,0.00,,,0.25,VWS V14.01,2013-07-19 00:42:00,
2013-07-18 20:43:00,84.9,59.3,28.97,SW,225,5.8,10.3,42,0.00,,,0.25,VWS V14.01,2013-07-19 00:43:00,
2013-07-18 20:44:00,84.9,59.3,28.97,WNW,292,6.0,8.7,42,0.00,,,0.25,VWS V14.01,2013-07-19 00:44:00,
2013-07-18 20:45:00,84.9,59.3,28.97,SW,225,8.7,10.7,42,0.00,,,0.25,VWS V14.01,2013-07-19 00:45:00,
2013-07-18 20:46:00,84.9,59.3,28.97,WSW,248,4.3,10.5,42,0.00,,,0.25,VWS V14.01,2013-07-19 00:46:00,
2013-07-18 20:47:00,84.9,59.3,28.97,SW,225,8.7,8.7,42,0.00,,,0.25,VWS V14.01,2013-07-19 00:47:00,
2013-07-18 20:48:00,84.9,59.3,28.97,WSW,248,3.6,5.8,42,0.00,,,0.25,VWS V14.01,2013-07-19 00:48:00,
2013-07-18 20:49:00,84.7,59.8,28.97,SSW,202,6.0,7.8,43,0.00,,,0.25,VWS V14.01,2013-07-19 00:49:00,
2013-07-18 20:50:00,84.6,59.6,28.97,SSW,202,8.7,8.7,43,0.00,,,0.25,VWS V14.01,2013-07-19 00:50:00,
2013-07-18 20:51:00,84.6,59.6,28.97,SSE,158,5.4,12.8,43,0.00,,,0.25,VWS V14.01,2013-07-19 00:51:00,
2013-07-18 20:52:00,84.9,59.3,28.97,WSW,248,4.3,4.3,42,0.00,,,0.25,VWS V14.01,2013-07-19 00:52:00,
2013-07-18 20:53:00,84.6,59.6,28.97,South,180,6.5,10.1,43,0.00,,,0.25,VWS V14.01,2013-07-19 00:53:00,
2013-07-18 20:54:00,84.6,59.6,28.97,SE,135,7.4,12.3,43,0.00,,,0.25,VWS V14.01,2013-07-19 00:54:00,
2013-07-18 20:55:00,84.6,59.6,28.97,SSW,202,7.4,8.5,43,0.00,,,0.25,VWS V14.01,2013-07-19 00:55:00,
2013-07-18 20:56:00,84.6,59.6,28.97,WSW,248,6.0,7.6,43,0.00,,,0.25,VWS V14.01,2013-07-19 00:56:00,
2013-07-18 20:57:00,84.6,59.6,28.97,SW,225,8.5,10.1,43,0.00,,,0.25,VWS V14.01,2013-07-19 00:57:00,
2013-07-18 20:58:00,84.4,59.5,28.97,WSW,248,9.6,9.6,43,0.00,,,0.25,VWS V14.01,2013-07-19 00:58:00,
2013-07-18 20:59:00,84.4,59.5,28.97,WSW,248,7.8,9.6,43,0.00,,,0.25,VWS V14.01,2013-07-19 00:59:00,
2013-07-18 21:00:00,84.4,59.5,28.97,SW,225,8.1,8.1,43,0.00,,,0.25,VWS V14.01,2013-07-19 01:00:00,
2013-07-18 21:01:00,84.4,59.5,28.97,WSW,248,10.7,10.7,43,0.00,,,0.25,VWS V14.01,2013-07-19 01:01:00,
2013-07-18 21:02:00,84.4,60.1,29.00,WSW,248,6.5,10.7,44,0.00,,,0.25,VWS V14.01,2013-07-19 01:02:00,
2013-07-18 21:03:00,84.6,59.6,28.97,SW,225,6.0,6.0,43,0.00,,,0.25,VWS V14.01,2013-07-19 01:03:00,
2013-07-18 21:04:00,84.2,60.0,29.00,WSW,248,7.8,7.8,44,0.00,,,0.25,VWS V14.01,2013-07-19 01:04:00,
2013-07-18 21:05:00,84.2,60.0,29.00,WSW,248,7.2,10.3,44,0.00,,,0.25,VWS V14.01,2013-07-19 01:05:00,
2013-07-18 21:06:00,84.2,60.0,29.00,SW,225,8.5,9.6,44,0.00,,,0.25,VWS V14.01,2013-07-19 01:06:00,
2013-07-18 21:07:00,84.2,60.0,29.00,SW,225,8.5,8.5,44,0.00,,,0.25,VWS V14.01,2013-07-19 01:07:00,
2013-07-18 21:08:00,84.4,60.1,29.00,SW,225,7.6,7.6,44,0.00,,,0.25,VWS V14.01,2013-07-19 01:08:00,
2013-07-18 21:09:00,84.2,60.0,29.00,South,180,5.4,12.1,44,0.00,,,0.25,VWS V14.01,2013-07-19 01:09:00,
2013-07-18 21:10:00,84.2,60.0,29.00,WSW,248,5.8,10.5,44,0.00,,,0.25,VWS V14.01,2013-07-19 01:10:00,
2013-07-18 21:11:00,84.2,60.0,29.00,West,270,8.5,8.5,44,0.00,,,0.25,VWS V14.01,2013-07-19 01:11:00,
2013-07-18 21:12:00,84.2,60.0,29.00,SSE,158,6.0,8.5,44,0.00,,,0.25,VWS V14.01,2013-07-19 01:12:00,
2013-07-18 21:13:00,84.2,60.0,29.00,WSW,248,8.7,8.7,44,0.00,,,0.25,VWS V14.01,2013-07-19 01:13:00,
2013-07-18 21:14:00,84.2,60.0,29.00,SW,225,6.0,9.8,44,0.00,,,0.25,VWS V14.01,2013-07-19 01:14:00,
2013-07-18 21:15:00,84.0,59.8,29.00,WSW,248,5.8,6.0,44,0.00,,,0.25,VWS V14.01,2013-07-19 01:15:00,
2013-07-18 21:16:00,84.0,59.8,28.97,WSW,248,6.0,11.0,44,0.00,,,0.25,VWS V14.01,2013-07-19 01:16:00,
2013-07-18 21:17:00,84.0,60.4,28.97,SW,225,11.0,12.1,45,0.00,,,0.25,VWS V14.01,2013-07-19 01:17:00,
2013-07-18 21:18:00,84.2,60.0,29.00,West,270,7.2,7.2,44,0.00,,,0.25,VWS V14.01,2013-07-19 01:18:00,
2013-07-18 21:19:00,83.8,60.2,28.97,South,180,10.7,13.0,45,0.00,,,0.25,VWS V14.01,2013-07-19 01:19:00,
2013-07-18 21:21:00,84.0,59.8,28.97,South,180,10.5,11.0,44,0.00,,,0.25,VWS V14.01,2013-07-19 01:21:00,
2013-07-18 21:22:00,83.8,60.2,28.97,SSW,202,7.6,12.5,45,0.00,,,0.25,VWS V14.01,2013-07-19 01:22:00,
2013-07-18 21:23:00,84.0,60.4,28.97,WSW,248,10.1,11.0,45,0.00,,,0.25,VWS V14.01,2013-07-19 01:23:00,
2013-07-18 21:24:00,83.8,60.2,28.97,SW,225,10.3,10.3,45,0.00,,,0.25,VWS V14.01,2013-07-19 01:24:00,
2013-07-18 21:25:00,83.8,60.2,28.97,SW,225,9.6,10.3,45,0.00,,,0.25,VWS V14.01,2013-07-19 01:25:00,
2013-07-18 21:26:00,83.8,60.2,28.97,SW,225,6.5,10.7,45,0.00,,,0.25,VWS V14.01,2013-07-19 01:26:00,
2013-07-18 21:27:00,83.8,60.2,28.97,West,270,5.6,12.1,45,0.00,,,0.25,VWS V14.01,2013-07-19 01:27:00,
2013-07-18 21:28:00,83.8,60.2,28.97,West,270,5.4,8.7,45,0.00,,,0.25,VWS V14.01,2013-07-19 01:28:00,
2013-07-18 21:29:00,83.8,59.6,28.97,SSW,202,10.7,10.7,44,0.00,,,0.25,VWS V14.01,2013-07-19 01:29:00,
2013-07-18 21:30:00,83.8,60.2,28.97,WSW,248,6.5,10.7,45,0.00,,,0.25,VWS V14.01,2013-07-19 01:30:00,
2013-07-18 21:31:00,83.8,60.2,28.97,SSW,202,6.3,10.7,45,0.00,,,0.25,VWS V14.01,2013-07-19 01:31:00,
2013-07-18 21:32:00,83.8,59.6,28.97,SW,225,13.0,13.0,44,0.00,,,0.25,VWS V14.01,2013-07-19 01:32:00,
2013-07-18 21:33:00,83.8,60.2,28.97,SSW,202,7.4,7.4,45,0.00,,,0.25,VWS V14.01,2013-07-19 01:33:00,
2013-07-18 21:34:00,83.8,59.6,28.97,West,270,15.2,15.2,44,0.00,,,0.25,VWS V14.01,2013-07-19 01:34:00,
2013-07-18 21:35:00,83.8,59.6,28.97,WNW,292,7.4,15.2,44,0.00,,,0.25,VWS V14.01,2013-07-19 01:35:00,
2013-07-18 21:36:00,83.8,59.6,28.97,WNW,292,7.4,7.4,44,0.00,,,0.25,VWS V14.01,2013-07-19 01:36:00,
2013-07-18 21:37:00,83.7,60.1,28.97,SSW,202,10.5,10.5,45,0.00,,,0.25,VWS V14.01,2013-07-19 01:37:00,
2013-07-18 21:38:00,83.8,59.6,28.97,SW,225,13.0,13.0,44,0.00,,,0.25,VWS V14.01,2013-07-19 01:38:00,
2013-07-18 21:40:00,83.7,60.1,28.97,West,270,6.5,10.3,45,0.00,,,0.25,VWS V14.01,2013-07-19 01:40:00,
2013-07-18 21:41:00,83.5,59.9,28.97,South,180,7.2,12.1,45,0.00,,,0.25,VWS V14.01,2013-07-19 01:41:00,
2013-07-18 21:42:00,83.5,59.9,28.97,WSW,248,12.5,12.5,45,0.00,,,0.25,VWS V14.01,2013-07-19 01:42:00,
2013-07-18 21:43:00,83.7,60.1,28.97,SW,225,9.6,10.5,45,0.00,,,0.25,VWS V14.01,2013-07-19 01:43:00,
2013-07-18 21:44:00,83.5,59.9,28.97,WSW,248,7.6,9.8,45,0.00,,,0.25,VWS V14.01,2013-07-19 01:44:00,
2013-07-18 21:45:00,83.5,59.9,28.97,West,270,6.5,7.6,45,0.00,,,0.25,VWS V14.01,2013-07-19 01:45:00,
2013-07-18 21:46:00,83.5,59.9,28.97,WSW,248,9.0,9.0,45,0.00,,,0.25,VWS V14.01,2013-07-19 01:46:00,
2013-07-18 21:47:00,83.3,59.8,28.97,SW,225,8.5,9.0,45,0.00,,,0.25,VWS V14.01,2013-07-19 01:47:00,
2013-07-18 21:48:00,83.5,59.9,28.97,WNW,292,6.5,12.5,45,0.00,,,0.25,VWS V14.01,2013-07-19 01:48:00,
2013-07-18 21:49:00,83.3,59.8,28.97,SSW,202,8.5,8.5,45,0.00,,,0.25,VWS V14.01,2013-07-19 01:49:00,
2013-07-18 21:50:00,83.3,59.8,28.97,WSW,248,4.7,10.1,45,0.00,,,0.25,VWS V14.01,2013-07-19 01:50:00,
2013-07-18 21:51:00,83.3,59.8,28.97,SW,225,5.4,9.6,45,0.00,,,0.25,VWS V14.01,2013-07-19 01:51:00,
2013-07-18 21:52:00,83.3,59.8,28.97,SW,225,13.0,13.0,45,0.00,,,0.25,VWS V14.01,2013-07-19 01:52:00,
2013-07-18 21:53:00,83.3,59.8,28.97,SW,225,6.3,8.5,45,0.00,,,0.25,VWS V14.01,2013-07-19 01:53:00,
2013-07-18 21:54:00,83.3,59.8,28.97,SSE,158,10.3,13.0,45,0.00,,,0.25,VWS V14.01,2013-07-19 01:54:00,
2013-07-18 21:55:00,83.3,60.4,28.97,WNW,292,9.4,10.3,46,0.00,,,0.25,VWS V14.01,2013-07-19 01:55:00,
2013-07-18 21:56:00,83.3,60.4,28.97,SSW,202,10.7,10.7,46,0.00,,,0.25,VWS V14.01,2013-07-19 01:56:00,
2013-07-18 21:57:00,83.3,60.4,28.97,SW,225,5.4,10.7,46,0.00,,,0.25,VWS V14.01,2013-07-19 01:57:00,
2013-07-18 21:58:00,83.3,59.8,28.97,SW,225,8.7,13.0,45,0.00,,,0.25,VWS V14.01,2013-07-19 01:58:00,
2013-07-18 21:59:00,83.1,60.2,28.97,SW,225,4.3,8.1,46,0.00,,,0.25,VWS V14.01,2013-07-19 01:59:00,
2013-07-18 22:00:00,83.1,60.2,28.97,SSW,202,10.3,10.3,46,0.00,,,0.25,VWS V14.01,2013-07-19 02:00:00,
2013-07-18 22:01:00,83.1,60.2,28.97,SSW,202,5.8,10.3,46,0.00,,,0.25,VWS V14.01,2013-07-19 02:01:00,
2013-07-18 22:02:00,83.1,60.2,28.97,SSW,202,8.5,8.5,46,0.00,,,0.25,VWS V14.01,2013-07-19 02:02:00,
2013-07-18 22:03:00,83.3,60.4,28.97,SW,225,11.9,11.9,46,0.00,,,0.25,VWS V14.01,2013-07-19 02:03:00,
2013-07-18 22:04:00,83.1,60.2,28.97,SSW,202,11.9,12.3,46,0.00,,,0.25,VWS V14.01,2013-07-19 02:04:00,
2013-07-18 22:05:00,83.1,60.2,28.97,SW,225,9.6,11.9,46,0.00,,,0.25,VWS V14.01,2013-07-19 02:05:00,
2013-07-18 22:06:00,83.1,60.2,28.97,SW,225,9.6,9.6,46,0.00,,,0.25,VWS V14.01,2013-07-19 02:06:00,
2013-07-18 22:07:00,83.1,60.8,28.97,WSW,248,9.8,10.5,47,0.00,,,0.25,VWS V14.01,2013-07-19 02:07:00,
2013-07-18 22:08:00,83.1,60.2,28.97,SSW,202,11.4,11.4,46,0.00,,,0.25,VWS V14.01,2013-07-19 02:08:00,
2013-07-18 22:09:00,82.9,60.0,28.97,WSW,248,7.8,10.5,46,0.00,,,0.25,VWS V14.01,2013-07-19 02:09:00,
2013-07-18 22:10:00,82.9,60.0,28.97,SSW,202,15.9,15.9,46,0.00,,,0.25,VWS V14.01,2013-07-19 02:10:00,
2013-07-18 22:11:00,82.9,60.7,28.97,SSW,202,9.8,15.9,47,0.00,,,0.25,VWS V14.01,2013-07-19 02:11:00,
2013-07-18 22:12:00,82.9,60.0,28.97,SSW,202,9.8,9.8,46,0.00,,,0.25,VWS V14.01,2013-07-19 02:12:00,
2013-07-18 22:13:00,82.9,60.0,28.97,West,270,10.7,10.7,46,0.00,,,0.25,VWS V14.01,2013-07-19 02:13:00,
2013-07-18 22:14:00,82.9,60.7,28.97,WSW,248,9.6,9.6,47,0.00,,,0.25,VWS V14.01,2013-07-19 02:14:00,
2013-07-18 22:15:00,82.9,60.7,28.97,SW,225,8.5,13.2,47,0.00,,,0.25,VWS V14.01,2013-07-19 02:15:00,
2013-07-18 22:16:00,82.8,60.5,28.97,SSW,202,10.5,10.5,47,0.00,,,0.25,VWS V14.01,2013-07-19 02:16:00,
2013-07-18 22:17:00,82.8,60.5,28.97,SW,225,8.7,10.5,47,0.00,,,0.25,VWS V14.01,2013-07-19 02:17:00,
2013-07-18 22:18:00,82.9,60.0,28.97,SSW,202,4.0,9.8,46,0.00,,,0.25,VWS V14.01,2013-07-19 02:18:00,
2013-07-18 22:19:00,82.8,60.5,28.97,SW,225,10.1,10.1,47,0.00,,,0.25,VWS V14.01,2013-07-19 02:19:00,
2013-07-18 22:20:00,82.8,60.5,28.97,SW,225,10.7,10.7,47,0.00,,,0.25,VWS V14.01,2013-07-19 02:20:00,
2013-07-18 22:21:00,82.8,60.5,28.97,WSW,248,9.2,10.7,47,0.00,,,0.25,VWS V14.01,2013-07-19 02:21:00,
2013-07-18 22:22:00,82.8,60.5,28.97,South,180,12.5,12.5,47,0.00,,,0.25,VWS V14.01,2013-07-19 02:22:00,
2013-07-18 22:23:00,82.8,60.5,28.97,WSW,248,6.0,8.7,47,0.00,,,0.25,VWS V14.01,2013-07-19 02:23:00,
2013-07-18 22:24:00,82.6,60.3,28.97,West,270,7.8,13.2,47,0.00,,,0.25,VWS V14.01,2013-07-19 02:24:00,
2013-07-18 22:25:00,82.6,60.3,28.97,WSW,248,5.8,10.5,47,0.00,,,0.25,VWS V14.01,2013-07-19 02:25:00,
2013-07-18 22:26:00,82.6,60.3,28.97,WSW,248,6.3,10.3,47,0.00,,,0.25,VWS V14.01,2013-07-19 02:26:00,
2013-07-18 22:27:00,82.6,60.9,28.97,WNW,292,7.8,10.3,48,0.00,,,0.25,VWS V14.01,2013-07-19 02:27:00,
2013-07-18 22:28:00,82.6,60.3,28.97,WSW,248,6.5,12.5,47,0.00,,,0.25,VWS V14.01,2013-07-19 02:28:00,
2013-07-18 22:29:00,82.6,60.3,28.97,SW,225,8.1,9.2,47,0.00,,,0.25,VWS V14.01,2013-07-19 02:29:00,
2013-07-18 22:30:00,82.6,60.9,28.97,SSW,202,6.5,8.1,48,0.00,,,0.25,VWS V14.01,2013-07-19 02:30:00,
2013-07-18 22:31:00,82.6,60.9,28.97,WSW,248,12.3,12.3,48,0.00,,,0.25,VWS V14.01,2013-07-19 02:31:00,
2013-07-18 22:32:00,82.4,60.2,28.97,South,180,11.4,12.3,47,0.00,,,0.25,VWS V14.01,2013-07-19 02:32:00,
2013-07-18 22:33:00,82.6,60.3,28.97,SW,225,7.6,7.8,47,0.00,,,0.25,VWS V14.01,2013-07-19 02:33:00,
2013-07-18 22:34:00,82.6,60.9,28.97,SW,225,7.6,12.3,48,0.00,,,0.25,VWS V14.01,2013-07-19 02:34:00,
2013-07-18 22:35:00,82.6,60.9,28.97,SW,225,10.1,10.1,48,0.00,,,0.25,VWS V14.01,2013-07-19 02:35:00,
2013-07-18 22:36:00,82.4,60.8,28.97,SSW,202,8.5,10.1,48,0.00,,,0.25,VWS V14.01,2013-07-19 02:36:00,
2013-07-18 22:37:00,82.4,60.8,28.97,SW,225,6.3,8.5,48,0.00,,,0.25,VWS V14.01,2013-07-19 02:37:00,
2013-07-18 22:38:00,82.4,60.8,28.97,SW,225,6.3,6.3,48,0.00,,,0.25,VWS V14.01,2013-07-19 02:38:00,
2013-07-18 22:39:00,82.6,60.9,28.97,SSE,158,7.2,13.4,48,0.00,,,0.25,VWS V14.01,2013-07-19 02:39:00,
2013-07-18 22:40:00,82.4,60.8,28.97,West,270,6.3,7.2,48,0.00,,,0.25,VWS V14.01,2013-07-19 02:40:00,
2013-07-18 22:41:00,82.4,60.8,28.97,SW,225,12.1,12.1,48,0.00,,,0.25,VWS V14.01,2013-07-19 02:41:00,
2013-07-18 22:42:00,82.4,60.8,28.97,SW,225,6.0,12.1,48,0.00,,,0.25,VWS V14.01,2013-07-19 02:42:00,
2013-07-18 22:43:00,82.4,60.8,28.97,SW,225,6.3,8.5,48,0.00,,,0.25,VWS V14.01,2013-07-19 02:43:00,
2013-07-18 22:44:00,82.4,60.8,28.97,SW,225,11.0,11.0,48,0.00,,,0.25,VWS V14.01,2013-07-19 02:44:00,
2013-07-18 22:45:00,82.4,60.8,28.97,WSW,248,8.7,11.0,48,0.00,,,0.25,VWS V14.01,2013-07-19 02:45:00,
2013-07-18 22:46:00,82.2,61.2,28.97,SW,225,7.8,8.7,49,0.00,,,0.25,VWS V14.01,2013-07-19 02:46:00,
2013-07-18 22:47:00,82.2,61.2,28.94,South,180,8.7,8.7,49,0.00,,,0.25,VWS V14.01,2013-07-19 02:47:00,
2013-07-18 22:48:00,82.4,60.8,28.97,SW,225,5.8,6.0,48,0.00,,,0.25,VWS V14.01,2013-07-19 02:48:00,
2013-07-18 22:49:00,82.2,60.6,28.94,West,270,7.6,14.8,48,0.00,,,0.25,VWS V14.01,2013-07-19 02:49:00,
2013-07-18 22:50:00,82.2,61.2,28.94,WSW,248,7.8,7.8,49,0.00,,,0.25,VWS V14.01,2013-07-19 02:50:00,
2013-07-18 22:51:00,82.2,61.2,28.94,WSW,248,8.1,8.1,49,0.00,,,0.25,VWS V14.01,2013-07-19 02:51:00,
2013-07-18 22:52:00,82.2,61.2,28.94,West,270,10.5,12.8,49,0.00,,,0.25,VWS V14.01,2013-07-19 02:52:00,
2013-07-18 22:53:00,82.2,61.2,28.94,SW,225,8.7,8.7,49,0.00,,,0.25,VWS V14.01,2013-07-19 02:53:00,
2013-07-18 22:54:00,82.2,61.2,28.94,SW,225,6.3,10.7,49,0.00,,,0.25,VWS V14.01,2013-07-19 02:54:00,
2013-07-18 22:55:00,82.2,61.2,28.94,West,270,8.5,12.8,49,0.00,,,0.25,VWS V14.01,2013-07-19 02:55:00,
2013-07-18 22:56:00,82.2,61.2,28.94,SW,225,7.4,10.1,49,0.00,,,0.25,VWS V14.01,2013-07-19 02:56:00,
2013-07-18 22:57:00,82.0,61.0,28.94,SW,225,8.5,8.5,49,0.00,,,0.25,VWS V14.01,2013-07-19 02:57:00,
2013-07-18 22:58:00,82.2,61.2,28.94,West,270,3.4,10.5,49,0.00,,,0.25,VWS V14.01,2013-07-19 02:58:00,
2013-07-18 22:59:00,82.0,61.0,28.94,SW,225,6.3,12.5,49,0.00,,,0.25,VWS V14.01,2013-07-19 02:59:00,
2013-07-18 23:00:00,82.0,61.0,28.94,South,180,6.7,10.3,49,0.00,,,0.25,VWS V14.01,2013-07-19 03:00:00,
2013-07-18 23:01:00,82.0,61.0,28.94,SW,225,4.0,12.3,49,0.00,,,0.25,VWS V14.01,2013-07-19 03:01:00,
2013-07-18 23:02:00,82.0,61.0,28.94,SW,225,4.0,4.0,49,0.00,,,0.25,VWS V14.01,2013-07-19 03:02:00,
2013-07-18 23:03:00,82.0,61.0,28.94,West,270,12.5,12.5,49,0.00,,,0.25,VWS V14.01,2013-07-19 03:03:00,
2013-07-18 23:04:00,82.0,61.0,28.94,SW,225,6.7,12.5,49,0.00,,,0.25,VWS V14.01,2013-07-19 03:04:00,
2013-07-18 23:05:00,82.0,61.0,28.94,WSW,248,11.0,11.0,49,0.00,,,0.25,VWS V14.01,2013-07-19 03:05:00,
2013-07-18 23:06:00,82.0,61.0,28.94,WSW,248,11.0,11.0,49,0.00,,,0.25,VWS V14.01,2013-07-19 03:06:00,
2013-07-18 23:07:00,82.0,61.0,28.94,SSW,202,7.6,15.4,49,0.00,,,0.25,VWS V14.01,2013-07-19 03:07:00,
2013-07-18 23:08:00,82.0,61.0,28.94,SSW,202,11.0,11.0,49,0.00,,,0.25,VWS V14.01,2013-07-19 03:08:00,
2013-07-18 23:09:00,82.0,61.0,28.94,WSW,248,7.6,10.7,49,0.00,,,0.25,VWS V14.01,2013-07-19 03:09:00,
2013-07-18 23:10:00,82.0,61.0,28.94,WSW,248,3.8,8.5,49,0.00,,,0.25,VWS V14.01,2013-07-19 03:10:00,
2013-07-18 23:11:00,82.0,61.0,28.94,WSW,248,6.0,6.0,49,0.00,,,0.25,VWS V14.01,2013-07-19 03:11:00,
2013-07-18 23:12:00,82.0,61.0,28.94,WSW,248,5.8,8.1,49,0.00,,,0.25,VWS V14.01,2013-07-19 03:12:00,
2013-07-18 23:13:00,82.0,61.0,28.94,SSW,202,5.8,8.5,49,0.00,,,0.25,VWS V14.01,2013-07-19 03:13:00,
2013-07-18 23:14:00,81.9,60.8,28.94,WSW,248,10.3,12.1,49,0.00,,,0.25,VWS V14.01,2013-07-19 03:14:00,
2013-07-18 23:15:00,81.9,60.8,28.94,WSW,248,5.4,10.3,49,0.00,,,0.25,VWS V14.01,2013-07-19 03:15:00,
2013-07-18 23:16:00,81.9,60.8,28.94,SW,225,5.8,6.0,49,0.00,,,0.25,VWS V14.01,2013-07-19 03:16:00,
2013-07-18 23:17:00,81.9,60.8,28.91,West,270,6.3,11.0,49,0.00,,,0.25,VWS V14.01,2013-07-19 03:17:00,
2013-07-18 23:18:00,81.9,60.8,28.94,WSW,248,6.5,10.5,49,0.00,,,0.25,VWS V14.01,2013-07-19 03:18:00,
2013-07-18 23:19:00,81.9,60.8,28.91,West,270,10.7,10.7,49,0.00,,,0.25,VWS V14.01,2013-07-19 03:19:00,
2013-07-18 23:20:00,81.9,60.8,28.91,West,270,5.8,10.7,49,0.00,,,0.25,VWS V14.01,2013-07-19 03:20:00,
2013-07-18 23:21:00,81.9,60.8,28.91,SW,225,6.0,10.5,49,0.00,,,0.25,VWS V14.01,2013-07-19 03:21:00,
2013-07-18 23:22:00,81.9,60.8,28.91,WSW,248,8.5,17.7,49,0.00,,,0.25,VWS V14.01,2013-07-19 03:22:00,
2013-07-18 23:23:00,81.9,60.8,28.91,West,270,10.7,10.7,49,0.00,,,0.25,VWS V14.01,2013-07-19 03:23:00,
2013-07-18 23:24:00,81.9,60.8,28.91,SW,225,10.7,12.5,49,0.00,,,0.25,VWS V14.01,2013-07-19 03:24:00,
2013-07-18 23:25:00,81.9,60.8,28.91,SW,225,10.7,10.7,49,0.00,,,0.25,VWS V14.01,2013-07-19 03:25:00,
2013-07-18 23:26:00,82.0,61.0,28.91,SW,225,12.8,13.6,49,0.00,,,0.25,VWS V14.01,2013-07-19 03:26:00,
2013-07-18 23:27:00,82.0,61.0,28.91,SSW,202,10.1,12.8,49,0.00,,,0.25,VWS V14.01,2013-07-19 03:27:00,
2013-07-18 23:28:00,81.9,60.8,28.91,WSW,248,12.5,12.5,49,0.00,,,0.25,VWS V14.01,2013-07-19 03:28:00,
2013-07-18 23:29:00,81.9,60.8,28.91,SW,225,13.0,13.0,49,0.00,,,0.25,VWS V14.01,2013-07-19 03:29:00,
2013-07-18 23:30:00,81.9,60.8,28.91,WSW,248,8.7,13.0,49,0.00,,,0.25,VWS V14.01,2013-07-19 03:30:00,
2013-07-18 23:31:00,81.9,60.8,28.91,West,270,7.8,8.7,49,0.00,,,0.25,VWS V14.01,2013-07-19 03:31:00,
2013-07-18 23:32:00,81.9,60.8,28.94,SSW,202,8.7,10.1,49,0.00,,,0.25,VWS V14.01,2013-07-19 03:32:00,
2013-07-18 23:33:00,81.9,60.8,28.91,West,270,5.6,10.1,49,0.00,,,0.25,VWS V14.01,2013-07-19 03:33:00,
2013-07-18 23:34:00,81.9,60.8,28.94,WSW,248,8.1,8.5,49,0.00,,,0.25,VWS V14.01,2013-07-19 03:34:00,
2013-07-18 23:36:00,81.9,60.8,28.94,WNW,292,7.2,14.5,49,0.00,,,0.25,VWS V14.01,2013-07-19 03:36:00,
2013-07-18 23:37:00,81.9,60.8,28.94,SSW,202,5.6,8.1,49,0.00,,,0.25,VWS V14.01,2013-07-19 03:37:00,
2013-07-18 23:38:00,81.9,60.8,28.94,WSW,248,5.8,8.7,49,0.00,,,0.25,VWS V14.01,2013-07-19 03:38:00,
2013-07-18 23:39:00,81.9,60.8,28.94,WSW,248,5.8,12.1,49,0.00,,,0.25,VWS V14.01,2013-07-19 03:39:00,
2013-07-18 23:40:00,81.7,61.2,28.94,SW,225,8.5,8.5,50,0.00,,,0.25,VWS V14.01,2013-07-19 03:40:00,
2013-07-18 23:41:00,81.7,60.7,28.94,SW,225,5.8,10.3,49,0.00,,,0.25,VWS V14.01,2013-07-19 03:41:00,
2013-07-18 23:42:00,81.7,60.7,28.94,SSW,202,5.8,12.5,49,0.00,,,0.25,VWS V14.01,2013-07-19 03:42:00,
2013-07-18 23:43:00,81.9,60.8,28.94,SW,225,12.1,12.1,49,0.00,,,0.25,VWS V14.01,2013-07-19 03:43:00,
2013-07-18 23:44:00,81.9,60.8,28.94,West,270,7.6,11.2,49,0.00,,,0.25,VWS V14.01,2013-07-19 03:44:00,
2013-07-18 23:45:00,81.9,60.8,28.94,WSW,248,7.8,13.0,49,0.00,,,0.25,VWS V14.01,2013-07-19 03:45:00,
2013-07-18 23:46:00,81.9,60.8,28.94,West,270,9.8,10.1,49,0.00,,,0.25,VWS V14.01,2013-07-19 03:46:00,
2013-07-18 23:47:00,81.9,60.8,28.91,SSW,202,8.1,9.8,49,0.00,,,0.25,VWS V14.01,2013-07-19 03:47:00,
2013-07-18 23:48:00,81.9,60.8,28.91,WSW,248,8.1,11.0,49,0.00,,,0.25,VWS V14.01,2013-07-19 03:48:00,
2013-07-18 23:49:00,81.7,60.7,28.94,WSW,248,11.2,11.2,49,0.00,,,0.25,VWS V14.01,2013-07-19 03:49:00,
2013-07-18 23:50:00,81.9,60.8,28.91,WSW,248,7.8,10.7,49,0.00,,,0.25,VWS V14.01,2013-07-19 03:50:00,
2013-07-18 23:51:00,81.9,60.8,28.91,SE,135,8.7,8.7,49,0.00,,,0.25,VWS V14.01,2013-07-19 03:51:00,
2013-07-18 23:52:00,81.7,60.7,28.91,SSW,202,7.4,8.7,49,0.00,,,0.25,VWS V14.01,2013-07-19 03:52:00,
2013-07-18 23:53:00,81.7,60.7,28.91,SW,225,10.1,10.1,49,0.00,,,0.25,VWS V14.01,2013-07-19 03:53:00,
2013-07-18 23:54:00,81.9,60.8,28.91,WSW,248,11.0,11.0,49,0.00,,,0.25,VWS V14.01,2013-07-19 03:54:00,
2013-07-18 23:55:00,81.9,60.8,28.91,SW,225,7.2,10.1,49,0.00,,,0.25,VWS V14.01,2013-07-19 03:55:00,
2013-07-18 23:56:00,81.9,60.8,28.91,West,270,12.8,12.8,49,0.00,,,0.25,VWS V14.01,2013-07-19 03:56:00,
2013-07-18 23:57:00,81.9,60.8,28.91,SSW,202,12.8,12.8,49,0.00,,,0.25,VWS V14.01,2013-07-19 03:57:00,
2013-07-18 23:58:00,81.9,60.8,28.91,SSW,202,8.5,12.8,49,0.00,,,0.25,VWS V14.01,2013-07-19 03:58:00,
2013-07-18 23:59:00,81.7,60.7,28.91,SW,225,10.1,10.1,49,0.00,,,0.25,VWS V14.01,2013-07-19 03:59:00,